Wetterdaten: Donnerstag, 28.07.2016
Datum Zeit Temp. A. Feuchte A. Luftdruck Regen Wind Richtung Richtung Sonnenschein ET UV Solar Taupunkt Windchill Windben Empfang
28.07.2016 00:00 17,8 C 94 % 1015,8 hPa 0,0 l/m 3,8 km/h (1 Bft) S-SW 192 0 min 0,000 mm 0,0 UV-I 0 W/m 16,8 C 17,8 C 6,4 km/h (2 Bft) 100,00 %
28.07.2016 00:02 17,8 C 94 % 1015,8 hPa 0,0 l/m 1,3 km/h (1 Bft) S-SW 192 0 min 0,000 mm 0,0 UV-I 0 W/m 16,8 C 17,8 C 3,2 km/h (1 Bft) 97,50 %
28.07.2016 00:04 17,7 C 94 % 1015,8 hPa 0,0 l/m 2,6 km/h (1 Bft) S-SW 192 0 min 0,000 mm 0,0 UV-I 0 W/m 16,7 C 17,7 C 4,8 km/h (1 Bft) 98,00 %
28.07.2016 00:06 17,8 C 94 % 1015,9 hPa 0,0 l/m 3,4 km/h (1 Bft) S-SW 192 0 min 0,000 mm 0,0 UV-I 0 W/m 16,8 C 17,8 C 4,8 km/h (1 Bft) 97,87 %
28.07.2016 00:08 17,8 C 94 % 1015,8 hPa 0,0 l/m 3,2 km/h (1 Bft) S 180 0 min 0,000 mm 0,0 UV-I 0 W/m 16,8 C 17,8 C 4,8 km/h (1 Bft) 97,87 %
28.07.2016 00:10 17,8 C 94 % 1015,9 hPa 0,0 l/m 2,8 km/h (1 Bft) S 188 0 min 0,000 mm 0,0 UV-I 0 W/m 16,8 C 17,8 C 4,8 km/h (1 Bft) 100,00 %
28.07.2016 00:12 17,8 C 94 % 1015,9 hPa 0,0 l/m 3,6 km/h (1 Bft) S 188 0 min 0,000 mm 0,0 UV-I 0 W/m 16,8 C 17,8 C 4,8 km/h (1 Bft) 100,00 %
28.07.2016 00:14 17,8 C 94 % 1015,9 hPa 0,0 l/m 3,0 km/h (1 Bft) S 188 0 min 0,000 mm 0,0 UV-I 0 W/m 16,8 C 17,8 C 4,8 km/h (1 Bft) 100,00 %
28.07.2016 00:16 17,7 C 94 % 1015,9 hPa 0,0 l/m 2,0 km/h (1 Bft) S 188 0 min 0,000 mm 0,0 UV-I 0 W/m 16,7 C 17,7 C 3,2 km/h (1 Bft) 100,00 %
28.07.2016 00:18 17,7 C 94 % 1015,9 hPa 0,0 l/m 2,1 km/h (1 Bft) S 188 0 min 0,000 mm 0,0 UV-I 0 W/m 16,7 C 17,7 C 3,2 km/h (1 Bft) 100,00 %
28.07.2016 00:20 17,7 C 94 % 1015,9 hPa 0,0 l/m 3,1 km/h (1 Bft) W 259 0 min 0,000 mm 0,0 UV-I 0 W/m 16,7 C 17,7 C 4,8 km/h (1 Bft) 96,00 %
28.07.2016 00:22 17,7 C 95 % 1016,0 hPa 0,0 l/m 3,2 km/h (1 Bft) W 259 0 min 0,000 mm 0,0 UV-I 0 W/m 16,9 C 17,7 C 4,8 km/h (1 Bft) 95,74 %
28.07.2016 00:24 17,8 C 95 % 1016,0 hPa 0,0 l/m 3,1 km/h (1 Bft) W 261 0 min 0,000 mm 0,0 UV-I 0 W/m 17,0 C 17,8 C 6,4 km/h (2 Bft) 97,87 %
28.07.2016 00:26 17,8 C 95 % 1016,0 hPa 0,0 l/m 4,3 km/h (1 Bft) W 269 0 min 0,000 mm 0,0 UV-I 0 W/m 17,0 C 17,8 C 9,7 km/h (2 Bft) 100,00 %
28.07.2016 00:28 17,8 C 95 % 1016,0 hPa 0,0 l/m 4,8 km/h (1 Bft) W-SW 246 0 min 0,000 mm 0,0 UV-I 0 W/m 17,0 C 17,8 C 6,4 km/h (2 Bft) 100,00 %
28.07.2016 00:30 17,8 C 95 % 1016,1 hPa 0,0 l/m 4,1 km/h (1 Bft) W 271 0 min 0,000 mm 0,0 UV-I 0 W/m 17,0 C 17,8 C 8,0 km/h (2 Bft) 100,00 %
28.07.2016 00:32 17,7 C 95 % 1016,0 hPa 0,0 l/m 5,6 km/h (1 Bft) W-SW 252 0 min 0,000 mm 0,0 UV-I 0 W/m 16,9 C 17,7 C 9,7 km/h (2 Bft) 97,87 %
28.07.2016 00:34 17,7 C 95 % 1016,0 hPa 0,0 l/m 4,3 km/h (1 Bft) SW 236 0 min 0,000 mm 0,0 UV-I 0 W/m 16,9 C 17,7 C 6,4 km/h (2 Bft) 97,87 %
28.07.2016 00:36 17,7 C 95 % 1016,0 hPa 0,0 l/m 4,3 km/h (1 Bft) S-SW 211 0 min 0,000 mm 0,0 UV-I 0 W/m 16,9 C 17,7 C 6,4 km/h (2 Bft) 100,00 %
28.07.2016 00:38 17,7 C 95 % 1015,9 hPa 0,0 l/m 2,9 km/h (1 Bft) S-SW 213 0 min 0,000 mm 0,0 UV-I 0 W/m 16,9 C 17,7 C 4,8 km/h (1 Bft) 93,62 %
28.07.2016 00:40 17,7 C 95 % 1015,9 hPa 0,0 l/m 3,9 km/h (1 Bft) SW 219 0 min 0,000 mm 0,0 UV-I 0 W/m 16,9 C 17,7 C 6,4 km/h (2 Bft) 97,87 %
28.07.2016 00:42 17,7 C 95 % 1016,0 hPa 0,0 l/m 3,9 km/h (1 Bft) SW 226 0 min 0,000 mm 0,0 UV-I 0 W/m 16,9 C 17,7 C 4,8 km/h (1 Bft) 93,62 %
28.07.2016 00:44 17,7 C 95 % 1015,9 hPa 0,0 l/m 3,5 km/h (1 Bft) W 261 0 min 0,000 mm 0,0 UV-I 0 W/m 16,9 C 17,7 C 6,4 km/h (2 Bft) 95,74 %
28.07.2016 00:46 17,7 C 95 % 1016,0 hPa 0,0 l/m 4,3 km/h (1 Bft) W-SW 256 0 min 0,000 mm 0,0 UV-I 0 W/m 16,9 C 17,7 C 6,4 km/h (2 Bft) 97,87 %
28.07.2016 00:48 17,7 C 95 % 1015,9 hPa 0,0 l/m 4,6 km/h (1 Bft) W-SW 250 0 min 0,000 mm 0,0 UV-I 0 W/m 16,9 C 17,7 C 6,4 km/h (2 Bft) 94,00 %
28.07.2016 00:50 17,7 C 95 % 1015,9 hPa 0,0 l/m 4,0 km/h (1 Bft) W 269 0 min 0,000 mm 0,0 UV-I 0 W/m 16,9 C 17,7 C 6,4 km/h (2 Bft) 95,74 %
28.07.2016 00:52 17,6 C 95 % 1015,9 hPa 0,0 l/m 4,5 km/h (1 Bft) W 267 0 min 0,000 mm 0,0 UV-I 0 W/m 16,8 C 17,6 C 6,4 km/h (2 Bft) 97,87 %
28.07.2016 00:54 17,7 C 95 % 1015,9 hPa 0,0 l/m 3,7 km/h (1 Bft) W 265 0 min 0,000 mm 0,0 UV-I 0 W/m 16,9 C 17,7 C 6,4 km/h (2 Bft) 93,62 %
28.07.2016 00:56 17,6 C 96 % 1015,9 hPa 0,0 l/m 4,0 km/h (1 Bft) W 263 0 min 0,000 mm 0,0 UV-I 0 W/m 17,0 C 17,6 C 6,4 km/h (2 Bft) 97,87 %
28.07.2016 00:58 17,7 C 96 % 1015,9 hPa 0,0 l/m 4,5 km/h (1 Bft) W-SW 242 0 min 0,000 mm 0,0 UV-I 0 W/m 17,1 C 17,7 C 6,4 km/h (2 Bft) 97,92 %
28.07.2016 01:00 17,7 C 96 % 1015,9 hPa 0,0 l/m 4,9 km/h (1 Bft) W-SW 252 0 min 0,000 mm 0,0 UV-I 0 W/m 17,1 C 17,7 C 9,7 km/h (2 Bft) 97,87 %
28.07.2016 01:02 17,7 C 96 % 1015,9 hPa 0,0 l/m 4,5 km/h (1 Bft) W 271 0 min 0,000 mm 0,0 UV-I 0 W/m 17,1 C 17,7 C 6,4 km/h (2 Bft) 97,87 %
28.07.2016 01:04 17,6 C 96 % 1015,9 hPa 0,0 l/m 6,6 km/h (2 Bft) W 264 0 min 0,000 mm 0,0 UV-I 0 W/m 17,0 C 17,5 C 11,3 km/h (2 Bft) 94,29 %
28.07.2016 01:06 17,6 C 96 % 1015,9 hPa 0,0 l/m 6,0 km/h (2 Bft) W 265 0 min 0,000 mm 0,0 UV-I 0 W/m 17,0 C 17,6 C 11,3 km/h (2 Bft) 97,87 %
28.07.2016 01:08 17,6 C 96 % 1015,9 hPa 0,0 l/m 5,4 km/h (1 Bft) W-SW 251 0 min 0,000 mm 0,0 UV-I 0 W/m 17,0 C 17,6 C 8,0 km/h (2 Bft) 95,74 %
28.07.2016 01:10 17,6 C 96 % 1015,9 hPa 0,0 l/m 7,7 km/h (2 Bft) W-SW 252 0 min 0,000 mm 0,0 UV-I 0 W/m 17,0 C 17,0 C 12,9 km/h (3 Bft) 95,74 %
28.07.2016 01:12 17,6 C 96 % 1015,9 hPa 0,0 l/m 6,1 km/h (2 Bft) W 261 0 min 0,000 mm 0,0 UV-I 0 W/m 17,0 C 17,6 C 9,7 km/h (2 Bft) 100,00 %
28.07.2016 01:14 17,6 C 96 % 1015,9 hPa 0,0 l/m 5,3 km/h (1 Bft) W-SW 253 0 min 0,000 mm 0,0 UV-I 0 W/m 17,0 C 17,6 C 9,7 km/h (2 Bft) 100,00 %
28.07.2016 01:16 17,6 C 96 % 1015,9 hPa 0,0 l/m 7,0 km/h (2 Bft) W-SW 248 0 min 0,000 mm 0,0 UV-I 0 W/m 17,0 C 17,3 C 11,3 km/h (2 Bft) 100,00 %
28.07.2016 01:18 17,6 C 96 % 1015,9 hPa 0,0 l/m 5,6 km/h (1 Bft) W-SW 255 0 min 0,000 mm 0,0 UV-I 0 W/m 17,0 C 17,6 C 8,0 km/h (2 Bft) 97,87 %
28.07.2016 01:20 17,6 C 96 % 1015,9 hPa 0,0 l/m 5,6 km/h (1 Bft) W 261 0 min 0,000 mm 0,0 UV-I 0 W/m 17,0 C 17,6 C 8,0 km/h (2 Bft) 97,87 %
28.07.2016 01:22 17,7 C 96 % 1015,9 hPa 0,0 l/m 5,8 km/h (2 Bft) W-SW 255 0 min 0,000 mm 0,0 UV-I 0 W/m 17,1 C 17,7 C 8,0 km/h (2 Bft) 100,00 %
28.07.2016 01:24 17,7 C 96 % 1015,9 hPa 0,0 l/m 5,9 km/h (2 Bft) W-SW 252 0 min 0,000 mm 0,0 UV-I 0 W/m 17,1 C 17,7 C 9,7 km/h (2 Bft) 100,00 %
28.07.2016 01:26 17,7 C 96 % 1015,9 hPa 0,0 l/m 5,5 km/h (1 Bft) W-SW 247 0 min 0,000 mm 0,0 UV-I 0 W/m 17,1 C 17,7 C 8,0 km/h (2 Bft) 100,00 %
28.07.2016 01:28 17,7 C 96 % 1015,9 hPa 0,0 l/m 6,3 km/h (2 Bft) W 261 0 min 0,000 mm 0,0 UV-I 0 W/m 17,1 C 17,7 C 12,9 km/h (3 Bft) 100,00 %
28.07.2016 01:30 17,7 C 95 % 1015,9 hPa 0,0 l/m 6,9 km/h (2 Bft) W 267 0 min 0,000 mm 0,0 UV-I 0 W/m 16,9 C 17,5 C 11,3 km/h (2 Bft) 100,00 %
28.07.2016 01:32 17,7 C 95 % 1015,9 hPa 0,0 l/m 6,1 km/h (2 Bft) W-SW 258 0 min 0,000 mm 0,0 UV-I 0 W/m 16,9 C 17,7 C 9,7 km/h (2 Bft) 97,87 %
28.07.2016 01:34 17,7 C 95 % 1015,9 hPa 0,0 l/m 5,2 km/h (1 Bft) W-SW 258 0 min 0,000 mm 0,0 UV-I 0 W/m 16,9 C 17,7 C 6,4 km/h (2 Bft) 100,00 %
28.07.2016 01:36 17,7 C 95 % 1015,9 hPa 0,0 l/m 5,0 km/h (1 Bft) W-SW 257 0 min 0,000 mm 0,0 UV-I 0 W/m 16,9 C 17,7 C 8,0 km/h (2 Bft) 97,92 %
28.07.2016 01:38 17,7 C 95 % 1015,9 hPa 0,0 l/m 6,7 km/h (2 Bft) W-SW 246 0 min 0,000 mm 0,0 UV-I 0 W/m 16,9 C 17,6 C 12,9 km/h (3 Bft) 97,87 %
28.07.2016 01:40 17,7 C 95 % 1016,0 hPa 0,0 l/m 5,4 km/h (1 Bft) W 269 0 min 0,000 mm 0,0 UV-I 0 W/m 16,9 C 17,7 C 8,0 km/h (2 Bft) 97,37 %
28.07.2016 01:42 17,7 C 95 % 1016,0 hPa 0,0 l/m 5,1 km/h (1 Bft) W 263 0 min 0,000 mm 0,0 UV-I 0 W/m 16,9 C 17,7 C 11,3 km/h (2 Bft) 100,00 %
28.07.2016 01:44 17,7 C 95 % 1016,0 hPa 0,0 l/m 3,9 km/h (1 Bft) W 262 0 min 0,000 mm 0,0 UV-I 0 W/m 16,9 C 17,7 C 6,4 km/h (2 Bft) 98,00 %
28.07.2016 01:46 17,7 C 95 % 1015,9 hPa 0,0 l/m 3,7 km/h (1 Bft) W 271 0 min 0,000 mm 0,0 UV-I 0 W/m 16,9 C 17,7 C 6,4 km/h (2 Bft) 97,87 %
28.07.2016 01:48 17,7 C 95 % 1015,9 hPa 0,0 l/m 2,5 km/h (1 Bft) W 271 0 min 0,000 mm 0,0 UV-I 0 W/m 16,9 C 17,7 C 4,8 km/h (1 Bft) 100,00 %
28.07.2016 01:50 17,7 C 95 % 1015,9 hPa 0,0 l/m 2,2 km/h (1 Bft) W 271 0 min 0,000 mm 0,0 UV-I 0 W/m 16,9 C 17,7 C 4,8 km/h (1 Bft) 98,00 %
28.07.2016 01:52 17,7 C 95 % 1015,8 hPa 0,0 l/m 3,8 km/h (1 Bft) W 268 0 min 0,000 mm 0,0 UV-I 0 W/m 16,9 C 17,7 C 6,4 km/h (2 Bft) 100,00 %
28.07.2016 01:54 17,7 C 95 % 1015,8 hPa 0,0 l/m 3,8 km/h (1 Bft) W 265 0 min 0,000 mm 0,0 UV-I 0 W/m 16,9 C 17,7 C 6,4 km/h (2 Bft) 100,00 %
28.07.2016 01:56 17,7 C 95 % 1015,8 hPa 0,0 l/m 4,4 km/h (1 Bft) W 265 0 min 0,000 mm 0,0 UV-I 0 W/m 16,9 C 17,7 C 6,4 km/h (2 Bft) 100,00 %
28.07.2016 01:58 17,7 C 95 % 1015,8 hPa 0,0 l/m 3,0 km/h (1 Bft) W 265 0 min 0,000 mm 0,0 UV-I 0 W/m 16,9 C 17,7 C 4,8 km/h (1 Bft) 97,14 %
28.07.2016 02:00 17,7 C 95 % 1015,8 hPa 0,0 l/m 3,3 km/h (1 Bft) W 265 0 min 0,000 mm 0,0 UV-I 0 W/m 16,9 C 17,7 C 4,8 km/h (1 Bft) 98,00 %
28.07.2016 02:02 17,7 C 95 % 1015,8 hPa 0,0 l/m 4,0 km/h (1 Bft) W 265 0 min 0,000 mm 0,0 UV-I 0 W/m 16,9 C 17,7 C 4,8 km/h (1 Bft) 100,00 %
28.07.2016 02:04 17,7 C 95 % 1015,8 hPa 0,0 l/m 4,9 km/h (1 Bft) W 263 0 min 0,000 mm 0,0 UV-I 0 W/m 16,9 C 17,7 C 6,4 km/h (2 Bft) 97,87 %
28.07.2016 02:06 17,7 C 95 % 1015,8 hPa 0,0 l/m 5,5 km/h (1 Bft) W 266 0 min 0,000 mm 0,0 UV-I 0 W/m 16,9 C 17,7 C 9,7 km/h (2 Bft) 97,92 %
28.07.2016 02:08 17,6 C 95 % 1015,8 hPa 0,0 l/m 5,4 km/h (1 Bft) W-SW 256 0 min 0,000 mm 0,0 UV-I 0 W/m 16,8 C 17,6 C 9,7 km/h (2 Bft) 100,00 %
28.07.2016 02:10 17,6 C 95 % 1015,7 hPa 0,0 l/m 6,0 km/h (2 Bft) W-SW 256 0 min 0,000 mm 0,0 UV-I 0 W/m 16,8 C 17,6 C 11,3 km/h (2 Bft) 100,00 %
28.07.2016 02:12 17,6 C 94 % 1015,8 hPa 0,0 l/m 6,1 km/h (2 Bft) W 268 0 min 0,000 mm 0,0 UV-I 0 W/m 16,6 C 17,6 C 9,7 km/h (2 Bft) 97,96 %
28.07.2016 02:14 17,6 C 95 % 1015,7 hPa 0,0 l/m 4,3 km/h (1 Bft) W-SW 254 0 min 0,000 mm 0,0 UV-I 0 W/m 16,8 C 17,6 C 6,4 km/h (2 Bft) 100,00 %
28.07.2016 02:16 17,6 C 94 % 1015,7 hPa 0,0 l/m 5,2 km/h (1 Bft) W-SW 253 0 min 0,000 mm 0,0 UV-I 0 W/m 16,6 C 17,6 C 8,0 km/h (2 Bft) 100,00 %
28.07.2016 02:18 17,6 C 94 % 1015,7 hPa 0,0 l/m 4,3 km/h (1 Bft) W 260 0 min 0,000 mm 0,0 UV-I 0 W/m 16,6 C 17,6 C 6,4 km/h (2 Bft) 97,87 %
28.07.2016 02:20 17,6 C 94 % 1015,7 hPa 0,0 l/m 3,4 km/h (1 Bft) W 265 0 min 0,000 mm 0,0 UV-I 0 W/m 16,6 C 17,6 C 4,8 km/h (1 Bft) 100,00 %
28.07.2016 02:22 17,6 C 94 % 1015,7 hPa 0,0 l/m 4,0 km/h (1 Bft) W-SW 246 0 min 0,000 mm 0,0 UV-I 0 W/m 16,6 C 17,6 C 6,4 km/h (2 Bft) 100,00 %
28.07.2016 02:24 17,6 C 94 % 1015,6 hPa 0,0 l/m 3,0 km/h (1 Bft) W-SW 248 0 min 0,000 mm 0,0 UV-I 0 W/m 16,6 C 17,6 C 4,8 km/h (1 Bft) 97,87 %
28.07.2016 02:26 17,5 C 94 % 1015,6 hPa 0,0 l/m 3,9 km/h (1 Bft) W 268 0 min 0,000 mm 0,0 UV-I 0 W/m 16,5 C 17,5 C 4,8 km/h (1 Bft) 100,00 %
28.07.2016 02:28 17,5 C 94 % 1015,6 hPa 0,0 l/m 3,9 km/h (1 Bft) W-SW 252 0 min 0,000 mm 0,0 UV-I 0 W/m 16,5 C 17,5 C 6,4 km/h (2 Bft) 97,87 %
28.07.2016 02:30 17,5 C 94 % 1015,7 hPa 0,0 l/m 4,4 km/h (1 Bft) W-SW 252 0 min 0,000 mm 0,0 UV-I 0 W/m 16,5 C 17,5 C 6,4 km/h (2 Bft) 97,87 %
28.07.2016 02:32 17,4 C 94 % 1015,6 hPa 0,0 l/m 4,6 km/h (1 Bft) W-SW 254 0 min 0,000 mm 0,0 UV-I 0 W/m 16,4 C 17,4 C 6,4 km/h (2 Bft) 100,00 %
28.07.2016 02:34 17,4 C 94 % 1015,7 hPa 0,0 l/m 3,9 km/h (1 Bft) W-SW 251 0 min 0,000 mm 0,0 UV-I 0 W/m 16,4 C 17,4 C 6,4 km/h (2 Bft) 97,87 %
28.07.2016 02:36 17,4 C 94 % 1015,7 hPa 0,0 l/m 5,3 km/h (1 Bft) W-SW 255 0 min 0,000 mm 0,0 UV-I 0 W/m 16,4 C 17,4 C 8,0 km/h (2 Bft) 95,74 %
28.07.2016 02:38 17,4 C 94 % 1015,7 hPa 0,0 l/m 4,9 km/h (1 Bft) W 261 0 min 0,000 mm 0,0 UV-I 0 W/m 16,4 C 17,4 C 6,4 km/h (2 Bft) 95,74 %
28.07.2016 02:40 17,4 C 94 % 1015,7 hPa 0,0 l/m 5,4 km/h (1 Bft) W-SW 254 0 min 0,000 mm 0,0 UV-I 0 W/m 16,4 C 17,4 C 11,3 km/h (2 Bft) 97,87 %
28.07.2016 02:42 17,4 C 94 % 1015,6 hPa 0,0 l/m 6,9 km/h (2 Bft) W-SW 240 0 min 0,000 mm 0,0 UV-I 0 W/m 16,4 C 17,2 C 12,9 km/h (3 Bft) 94,74 %
28.07.2016 02:44 17,3 C 94 % 1015,7 hPa 0,0 l/m 6,3 km/h (2 Bft) W-SW 240 0 min 0,000 mm 0,0 UV-I 0 W/m 16,3 C 17,3 C 12,9 km/h (3 Bft) 97,87 %
28.07.2016 02:46 17,3 C 94 % 1015,7 hPa 0,0 l/m 4,6 km/h (1 Bft) W 263 0 min 0,000 mm 0,0 UV-I 0 W/m 16,3 C 17,3 C 6,4 km/h (2 Bft) 95,74 %
28.07.2016 02:48 17,3 C 94 % 1015,7 hPa 0,0 l/m 3,9 km/h (1 Bft) W-SW 257 0 min 0,000 mm 0,0 UV-I 0 W/m 16,3 C 17,3 C 9,7 km/h (2 Bft) 95,74 %
28.07.2016 02:50 17,3 C 94 % 1015,7 hPa 0,0 l/m 6,4 km/h (2 Bft) W 260 0 min 0,000 mm 0,0 UV-I 0 W/m 16,3 C 17,3 C 11,3 km/h (2 Bft) 95,83 %
28.07.2016 02:52 17,3 C 94 % 1015,8 hPa 0,0 l/m 7,0 km/h (2 Bft) W 260 0 min 0,000 mm 0,0 UV-I 0 W/m 16,3 C 17,0 C 11,3 km/h (2 Bft) 97,87 %
28.07.2016 02:54 17,3 C 94 % 1015,8 hPa 0,0 l/m 8,6 km/h (2 Bft) W-SW 243 0 min 0,000 mm 0,0 UV-I 0 W/m 16,3 C 16,2 C 16,1 km/h (3 Bft) 96,00 %
28.07.2016 02:56 17,3 C 94 % 1015,8 hPa 0,0 l/m 6,7 km/h (2 Bft) W-NW 287 0 min 0,000 mm 0,0 UV-I 0 W/m 16,3 C 17,2 C 11,3 km/h (2 Bft) 93,62 %
28.07.2016 02:58 17,3 C 94 % 1015,8 hPa 0,0 l/m 4,0 km/h (1 Bft) W 260 0 min 0,000 mm 0,0 UV-I 0 W/m 16,3 C 17,3 C 9,7 km/h (2 Bft) 97,87 %
28.07.2016 03:00 17,3 C 94 % 1015,8 hPa 0,0 l/m 3,2 km/h (1 Bft) W-NW 283 0 min 0,000 mm 0,0 UV-I 0 W/m 16,3 C 17,3 C 4,8 km/h (1 Bft) 97,87 %
28.07.2016 03:02 17,3 C 94 % 1015,8 hPa 0,0 l/m 4,4 km/h (1 Bft) W-SW 256 0 min 0,000 mm 0,0 UV-I 0 W/m 16,3 C 17,3 C 8,0 km/h (2 Bft) 95,74 %
28.07.2016 03:04 17,3 C 94 % 1015,8 hPa 0,0 l/m 4,2 km/h (1 Bft) SW 236 0 min 0,000 mm 0,0 UV-I 0 W/m 16,3 C 17,3 C 8,0 km/h (2 Bft) 95,74 %
28.07.2016 03:06 17,3 C 94 % 1015,9 hPa 0,0 l/m 4,0 km/h (1 Bft) W-SW 256 0 min 0,000 mm 0,0 UV-I 0 W/m 16,3 C 17,3 C 6,4 km/h (2 Bft) 95,74 %
28.07.2016 03:08 17,3 C 94 % 1015,9 hPa 0,0 l/m 5,3 km/h (1 Bft) W-SW 257 0 min 0,000 mm 0,0 UV-I 0 W/m 16,3 C 17,3 C 9,7 km/h (2 Bft) 100,00 %
28.07.2016 03:10 17,3 C 94 % 1015,9 hPa 0,0 l/m 5,3 km/h (1 Bft) W-SW 252 0 min 0,000 mm 0,0 UV-I 0 W/m 16,3 C 17,3 C 9,7 km/h (2 Bft) 100,00 %
28.07.2016 03:12 17,3 C 94 % 1015,9 hPa 0,0 l/m 5,7 km/h (1 Bft) W-SW 257 0 min 0,000 mm 0,0 UV-I 0 W/m 16,3 C 17,3 C 11,3 km/h (2 Bft) 100,00 %
28.07.2016 03:14 17,3 C 94 % 1015,9 hPa 0,0 l/m 4,2 km/h (1 Bft) W-SW 254 0 min 0,000 mm 0,0 UV-I 0 W/m 16,3 C 17,3 C 6,4 km/h (2 Bft) 100,00 %
28.07.2016 03:16 17,3 C 94 % 1015,8 hPa 0,0 l/m 4,5 km/h (1 Bft) W-SW 254 0 min 0,000 mm 0,0 UV-I 0 W/m 16,3 C 17,3 C 8,0 km/h (2 Bft) 97,87 %
28.07.2016 03:18 17,3 C 94 % 1015,9 hPa 0,0 l/m 4,7 km/h (1 Bft) W-SW 254 0 min 0,000 mm 0,0 UV-I 0 W/m 16,3 C 17,3 C 6,4 km/h (2 Bft) 97,87 %
28.07.2016 03:20 17,3 C 94 % 1015,8 hPa 0,0 l/m 3,0 km/h (1 Bft) W-SW 258 0 min 0,000 mm 0,0 UV-I 0 W/m 16,3 C 17,3 C 6,4 km/h (2 Bft) 100,00 %
28.07.2016 03:22 17,3 C 94 % 1015,8 hPa 0,0 l/m 2,3 km/h (1 Bft) W-SW 258 0 min 0,000 mm 0,0 UV-I 0 W/m 16,3 C 17,3 C 4,8 km/h (1 Bft) 100,00 %
28.07.2016 03:24 17,3 C 94 % 1015,8 hPa 0,0 l/m 0,1 km/h (0 Bft) W-SW 258 0 min 0,000 mm 0,0 UV-I 0 W/m 16,3 C 17,3 C 1,6 km/h (1 Bft) 100,00 %
28.07.2016 03:26 17,3 C 94 % 1015,8 hPa 0,0 l/m 1,7 km/h (1 Bft) W-SW 258 0 min 0,000 mm 0,0 UV-I 0 W/m 16,3 C 17,3 C 3,2 km/h (1 Bft) 100,00 %
28.07.2016 03:28 17,3 C 94 % 1015,8 hPa 0,0 l/m 2,3 km/h (1 Bft) W-SW 258 0 min 0,000 mm 0,0 UV-I 0 W/m 16,3 C 17,3 C 3,2 km/h (1 Bft) 95,74 %
28.07.2016 03:30 17,3 C 94 % 1015,8 hPa 0,0 l/m 2,3 km/h (1 Bft) W-SW 258 0 min 0,000 mm 0,0 UV-I 0 W/m 16,3 C 17,3 C 4,8 km/h (1 Bft) 97,87 %
28.07.2016 03:32 17,3 C 94 % 1015,8 hPa 0,0 l/m 1,3 km/h (1 Bft) W-SW 258 0 min 0,000 mm 0,0 UV-I 0 W/m 16,3 C 17,3 C 3,2 km/h (1 Bft) 100,00 %
28.07.2016 03:34 17,3 C 94 % 1015,8 hPa 0,0 l/m 2,4 km/h (1 Bft) W-SW 258 0 min 0,000 mm 0,0 UV-I 0 W/m 16,3 C 17,3 C 4,8 km/h (1 Bft) 97,87 %
28.07.2016 03:36 17,3 C 95 % 1015,8 hPa 0,0 l/m 0,9 km/h (0 Bft) W-SW 258 0 min 0,000 mm 0,0 UV-I 0 W/m 16,5 C 17,3 C 3,2 km/h (1 Bft) 97,87 %
28.07.2016 03:38 17,3 C 95 % 1015,8 hPa 0,0 l/m 0,0 km/h (0 Bft) W-SW 258 0 min 0,000 mm 0,0 UV-I 0 W/m 16,5 C 17,3 C 0,0 km/h (0 Bft) 100,00 %
28.07.2016 03:40 17,3 C 95 % 1015,9 hPa 0,0 l/m 0,9 km/h (0 Bft) W-SW 258 0 min 0,000 mm 0,0 UV-I 0 W/m 16,5 C 17,3 C 3,2 km/h (1 Bft) 100,00 %
28.07.2016 03:42 17,3 C 95 % 1015,9 hPa 0,0 l/m 0,9 km/h (0 Bft) W-SW 258 0 min 0,000 mm 0,0 UV-I 0 W/m 16,5 C 17,3 C 3,2 km/h (1 Bft) 97,87 %
28.07.2016 03:44 17,3 C 95 % 1015,8 hPa 0,0 l/m 0,1 km/h (0 Bft) W-SW 258 0 min 0,000 mm 0,0 UV-I 0 W/m 16,5 C 17,3 C 1,6 km/h (1 Bft) 100,00 %
28.07.2016 03:46 17,3 C 95 % 1015,8 hPa 0,0 l/m 0,4 km/h (0 Bft) W-SW 258 0 min 0,000 mm 0,0 UV-I 0 W/m 16,5 C 17,3 C 1,6 km/h (1 Bft) 95,74 %
28.07.2016 03:48 17,3 C 95 % 1015,8 hPa 0,0 l/m 0,0 km/h (0 Bft) W-SW 258 0 min 0,000 mm 0,0 UV-I 0 W/m 16,5 C 17,3 C 0,0 km/h (0 Bft) 100,00 %
28.07.2016 03:50 17,3 C 95 % 1015,8 hPa 0,0 l/m 0,0 km/h (0 Bft) W-SW 258 0 min 0,000 mm 0,0 UV-I 0 W/m 16,5 C 17,3 C 1,6 km/h (1 Bft) 100,00 %
28.07.2016 03:52 17,3 C 95 % 1015,8 hPa 0,0 l/m 0,0 km/h (0 Bft) W-SW 258 0 min 0,000 mm 0,0 UV-I 0 W/m 16,5 C 17,3 C 0,0 km/h (0 Bft) 97,87 %
28.07.2016 03:54 17,3 C 95 % 1015,7 hPa 0,0 l/m 0,2 km/h (0 Bft) W-SW 258 0 min 0,000 mm 0,0 UV-I 0 W/m 16,5 C 17,3 C 1,6 km/h (1 Bft) 100,00 %
28.07.2016 03:56 17,3 C 95 % 1015,7 hPa 0,0 l/m 0,5 km/h (0 Bft) W-SW 258 0 min 0,000 mm 0,0 UV-I 0 W/m 16,5 C 17,3 C 1,6 km/h (1 Bft) 95,74 %
28.07.2016 03:58 17,3 C 95 % 1015,7 hPa 0,0 l/m 1,0 km/h (0 Bft) W-SW 258 0 min 0,000 mm 0,0 UV-I 0 W/m 16,5 C 17,3 C 1,6 km/h (1 Bft) 97,87 %
28.07.2016 04:00 17,3 C 95 % 1015,7 hPa 0,0 l/m 0,2 km/h (0 Bft) W-SW 258 0 min 0,000 mm 0,0 UV-I 0 W/m 16,5 C 17,3 C 1,6 km/h (1 Bft) 97,87 %
28.07.2016 04:02 17,2 C 95 % 1015,7 hPa 0,0 l/m 0,1 km/h (0 Bft) W-SW 258 0 min 0,000 mm 0,0 UV-I 0 W/m 16,4 C 17,2 C 1,6 km/h (1 Bft) 96,77 %
28.07.2016 04:04 17,2 C 95 % 1015,7 hPa 0,0 l/m 0,8 km/h (0 Bft) W-SW 254 0 min 0,000 mm 0,0 UV-I 0 W/m 16,4 C 17,2 C 3,2 km/h (1 Bft) 97,87 %
28.07.2016 04:06 17,2 C 95 % 1015,7 hPa 0,0 l/m 2,0 km/h (1 Bft) W-SW 254 0 min 0,000 mm 0,0 UV-I 0 W/m 16,4 C 17,2 C 3,2 km/h (1 Bft) 97,87 %
28.07.2016 04:08 17,2 C 95 % 1015,7 hPa 0,0 l/m 1,7 km/h (1 Bft) W-SW 254 0 min 0,000 mm 0,0 UV-I 0 W/m 16,4 C 17,2 C 3,2 km/h (1 Bft) 100,00 %
28.07.2016 04:10 17,2 C 96 % 1015,8 hPa 0,0 l/m 0,4 km/h (0 Bft) W-SW 254 0 min 0,000 mm 0,0 UV-I 0 W/m 16,6 C 17,2 C 1,6 km/h (1 Bft) 100,00 %
28.07.2016 04:12 17,2 C 96 % 1015,8 hPa 0,0 l/m 1,0 km/h (0 Bft) W-SW 254 0 min 0,000 mm 0,0 UV-I 0 W/m 16,6 C 17,2 C 3,2 km/h (1 Bft) 98,00 %
28.07.2016 04:14 17,2 C 96 % 1015,8 hPa 0,0 l/m 1,7 km/h (1 Bft) W-SW 254 0 min 0,000 mm 0,0 UV-I 0 W/m 16,6 C 17,2 C 3,2 km/h (1 Bft) 100,00 %
28.07.2016 04:16 17,2 C 96 % 1015,8 hPa 0,0 l/m 0,0 km/h (0 Bft) W-SW 254 0 min 0,000 mm 0,0 UV-I 0 W/m 16,6 C 17,2 C 0,0 km/h (0 Bft) 100,00 %
28.07.2016 04:18 17,2 C 95 % 1015,8 hPa 0,0 l/m 0,0 km/h (0 Bft) W-SW 254 0 min 0,000 mm 0,0 UV-I 0 W/m 16,4 C 17,2 C 1,6 km/h (1 Bft) 100,00 %
28.07.2016 04:20 17,2 C 95 % 1015,8 hPa 0,0 l/m 0,8 km/h (0 Bft) W-SW 254 0 min 0,000 mm 0,0 UV-I 0 W/m 16,4 C 17,2 C 3,2 km/h (1 Bft) 100,00 %
28.07.2016 04:22 17,2 C 96 % 1015,8 hPa 0,0 l/m 1,6 km/h (1 Bft) W-SW 254 0 min 0,000 mm 0,0 UV-I 0 W/m 16,6 C 17,2 C 3,2 km/h (1 Bft) 97,87 %
28.07.2016 04:24 17,2 C 96 % 1015,8 hPa 0,0 l/m 0,6 km/h (0 Bft) W-SW 254 0 min 0,000 mm 0,0 UV-I 0 W/m 16,6 C 17,2 C 1,6 km/h (1 Bft) 97,87 %
28.07.2016 04:26 17,2 C 96 % 1015,8 hPa 0,0 l/m 0,9 km/h (0 Bft) W-SW 254 0 min 0,000 mm 0,0 UV-I 0 W/m 16,6 C 17,2 C 1,6 km/h (1 Bft) 97,87 %
28.07.2016 04:28 17,2 C 96 % 1015,8 hPa 0,0 l/m 0,7 km/h (0 Bft) W-SW 254 0 min 0,000 mm 0,0 UV-I 0 W/m 16,6 C 17,2 C 1,6 km/h (1 Bft) 100,00 %
28.07.2016 04:30 17,2 C 95 % 1015,8 hPa 0,0 l/m 0,8 km/h (0 Bft) W-SW 254 0 min 0,000 mm 0,0 UV-I 0 W/m 16,4 C 17,2 C 1,6 km/h (1 Bft) 95,74 %
28.07.2016 04:32 17,2 C 96 % 1015,8 hPa 0,0 l/m 1,4 km/h (1 Bft) W-SW 254 0 min 0,000 mm 0,0 UV-I 0 W/m 16,6 C 17,2 C 1,6 km/h (1 Bft) 100,00 %
28.07.2016 04:34 17,2 C 96 % 1015,7 hPa 0,0 l/m 2,1 km/h (1 Bft) W-SW 254 0 min 0,000 mm 0,0 UV-I 0 W/m 16,6 C 17,2 C 3,2 km/h (1 Bft) 94,74 %
28.07.2016 04:36 17,2 C 96 % 1015,7 hPa 0,0 l/m 0,7 km/h (0 Bft) W-SW 254 0 min 0,000 mm 0,0 UV-I 0 W/m 16,6 C 17,2 C 3,2 km/h (1 Bft) 97,87 %
28.07.2016 04:38 17,2 C 96 % 1015,7 hPa 0,0 l/m 0,7 km/h (0 Bft) W-SW 254 0 min 0,000 mm 0,0 UV-I 0 W/m 16,6 C 17,2 C 1,6 km/h (1 Bft) 95,74 %
28.07.2016 04:40 17,3 C 96 % 1015,7 hPa 0,0 l/m 1,3 km/h (1 Bft) W-SW 254 0 min 0,000 mm 0,0 UV-I 0 W/m 16,7 C 17,3 C 3,2 km/h (1 Bft) 97,87 %
28.07.2016 04:42 17,2 C 96 % 1015,7 hPa 0,0 l/m 0,6 km/h (0 Bft) W-SW 254 0 min 0,000 mm 0,0 UV-I 0 W/m 16,6 C 17,2 C 1,6 km/h (1 Bft) 95,74 %
28.07.2016 04:44 17,2 C 96 % 1015,8 hPa 0,0 l/m 1,7 km/h (1 Bft) W-SW 254 0 min 0,000 mm 0,0 UV-I 0 W/m 16,6 C 17,2 C 3,2 km/h (1 Bft) 97,92 %
28.07.2016 04:46 17,2 C 96 % 1015,8 hPa 0,0 l/m 1,9 km/h (1 Bft) W-SW 254 0 min 0,000 mm 0,0 UV-I 0 W/m 16,6 C 17,2 C 3,2 km/h (1 Bft) 97,87 %
28.07.2016 04:48 17,2 C 96 % 1015,8 hPa 0,0 l/m 0,9 km/h (0 Bft) W-SW 254 0 min 0,000 mm 0,0 UV-I 0 W/m 16,6 C 17,2 C 1,6 km/h (1 Bft) 97,87 %
28.07.2016 04:50 17,2 C 96 % 1015,8 hPa 0,0 l/m 1,6 km/h (1 Bft) W-SW 254 0 min 0,000 mm 0,0 UV-I 0 W/m 16,6 C 17,2 C 3,2 km/h (1 Bft) 97,87 %
28.07.2016 04:52 17,2 C 96 % 1015,8 hPa 0,0 l/m 0,1 km/h (0 Bft) W-SW 254 0 min 0,000 mm 0,0 UV-I 0 W/m 16,6 C 17,2 C 1,6 km/h (1 Bft) 97,87 %
28.07.2016 04:54 17,2 C 96 % 1015,7 hPa 0,0 l/m 0,0 km/h (0 Bft) W-SW 254 0 min 0,000 mm 0,0 UV-I 0 W/m 16,6 C 17,2 C 0,0 km/h (0 Bft) 97,87 %
28.07.2016 04:56 17,2 C 96 % 1015,8 hPa 0,0 l/m 0,0 km/h (0 Bft) W-SW 254 0 min 0,000 mm 0,0 UV-I 0 W/m 16,6 C 17,2 C 0,0 km/h (0 Bft) 97,87 %
28.07.2016 04:58 17,2 C 96 % 1015,7 hPa 0,0 l/m 0,0 km/h (0 Bft) W-SW 254 0 min 0,000 mm 0,0 UV-I 0 W/m 16,6 C 17,2 C 1,6 km/h (1 Bft) 95,74 %
28.07.2016 05:00 17,3 C 96 % 1015,8 hPa 0,0 l/m 0,2 km/h (0 Bft) W-SW 254 0 min 0,000 mm 0,0 UV-I 0 W/m 16,7 C 17,3 C 1,6 km/h (1 Bft) 97,87 %
28.07.2016 05:02 17,3 C 96 % 1015,7 hPa 0,0 l/m 0,0 km/h (0 Bft) W-SW 254 0 min 0,000 mm 0,0 UV-I 0 W/m 16,7 C 17,3 C 0,0 km/h (0 Bft) 97,87 %
28.07.2016 05:04 17,3 C 96 % 1015,8 hPa 0,0 l/m 0,0 km/h (0 Bft) W-SW 254 0 min 0,000 mm 0,0 UV-I 0 W/m 16,7 C 17,3 C 0,0 km/h (0 Bft) 93,62 %
28.07.2016 05:06 17,3 C 96 % 1015,8 hPa 0,0 l/m 0,0 km/h (0 Bft) W-SW 254 0 min 0,000 mm 0,0 UV-I 0 W/m 16,7 C 17,3 C 0,0 km/h (0 Bft) 100,00 %
28.07.2016 05:08 17,3 C 96 % 1015,8 hPa 0,0 l/m 0,0 km/h (0 Bft) W-SW 254 0 min 0,000 mm 0,0 UV-I 0 W/m 16,7 C 17,3 C 1,6 km/h (1 Bft) 98,00 %
28.07.2016 05:10 17,3 C 96 % 1015,8 hPa 0,0 l/m 0,1 km/h (0 Bft) W-SW 254 0 min 0,000 mm 0,0 UV-I 0 W/m 16,7 C 17,3 C 1,6 km/h (1 Bft) 100,00 %
28.07.2016 05:12 17,3 C 96 % 1015,8 hPa 0,0 l/m 0,4 km/h (0 Bft) W-SW 254 0 min 0,000 mm 0,0 UV-I 0 W/m 16,7 C 17,3 C 1,6 km/h (1 Bft) 97,87 %
28.07.2016 05:14 17,3 C 96 % 1015,8 hPa 0,0 l/m 0,0 km/h (0 Bft) W-SW 254 0 min 0,000 mm 0,0 UV-I 0 W/m 16,7 C 17,3 C 0,0 km/h (0 Bft) 100,00 %
28.07.2016 05:16 17,3 C 96 % 1015,9 hPa 0,0 l/m 1,0 km/h (0 Bft) W-SW 254 0 min 0,000 mm 0,0 UV-I 0 W/m 16,7 C 17,3 C 3,2 km/h (1 Bft) 100,00 %
28.07.2016 05:18 17,3 C 96 % 1015,9 hPa 0,0 l/m 0,8 km/h (0 Bft) W-SW 254 0 min 0,000 mm 0,0 UV-I 0 W/m 16,7 C 17,3 C 1,6 km/h (1 Bft) 100,00 %
28.07.2016 05:20 17,3 C 96 % 1015,9 hPa 0,0 l/m 0,0 km/h (0 Bft) W-SW 254 0 min 0,000 mm 0,0 UV-I 0 W/m 16,7 C 17,3 C 0,0 km/h (0 Bft) 100,00 %
28.07.2016 05:22 17,3 C 96 % 1015,9 hPa 0,0 l/m 1,1 km/h (1 Bft) W-SW 254 0 min 0,000 mm 0,0 UV-I 0 W/m 16,7 C 17,3 C 3,2 km/h (1 Bft) 100,00 %
28.07.2016 05:24 17,3 C 96 % 1016,0 hPa 0,0 l/m 0,8 km/h (0 Bft) W-SW 254 0 min 0,000 mm 0,0 UV-I 0 W/m 16,7 C 17,3 C 1,6 km/h (1 Bft) 100,00 %
28.07.2016 05:26 17,3 C 96 % 1015,9 hPa 0,0 l/m 1,1 km/h (1 Bft) W-SW 254 0 min 0,000 mm 0,0 UV-I 0 W/m 16,7 C 17,3 C 3,2 km/h (1 Bft) 100,00 %
28.07.2016 05:28 17,3 C 96 % 1015,9 hPa 0,0 l/m 2,4 km/h (1 Bft) W-SW 254 0 min 0,000 mm 0,0 UV-I 0 W/m 16,7 C 17,3 C 3,2 km/h (1 Bft) 100,00 %
28.07.2016 05:30 17,3 C 96 % 1016,0 hPa 0,0 l/m 2,0 km/h (1 Bft) W-SW 254 0 min 0,000 mm 0,0 UV-I 0 W/m 16,7 C 17,3 C 3,2 km/h (1 Bft) 100,00 %
28.07.2016 05:32 17,3 C 96 % 1016,0 hPa 0,0 l/m 2,4 km/h (1 Bft) W-SW 254 0 min 0,000 mm 0,0 UV-I 0 W/m 16,7 C 17,3 C 3,2 km/h (1 Bft) 100,00 %
28.07.2016 05:34 17,3 C 96 % 1016,0 hPa 0,0 l/m 2,0 km/h (1 Bft) W-SW 254 0 min 0,000 mm 0,0 UV-I 0 W/m 16,7 C 17,3 C 3,2 km/h (1 Bft) 97,87 %
28.07.2016 05:36 17,3 C 96 % 1016,0 hPa 0,0 l/m 2,5 km/h (1 Bft) W-SW 254 0 min 0,000 mm 0,0 UV-I 0 W/m 16,7 C 17,3 C 3,2 km/h (1 Bft) 95,74 %
28.07.2016 05:38 17,3 C 96 % 1016,0 hPa 0,0 l/m 2,4 km/h (1 Bft) W-SW 252 0 min 0,000 mm 0,0 UV-I 0 W/m 16,7 C 17,3 C 4,8 km/h (1 Bft) 100,00 %
28.07.2016 05:40 17,3 C 96 % 1015,9 hPa 0,0 l/m 3,4 km/h (1 Bft) SW 218 0 min 0,000 mm 0,0 UV-I 0 W/m 16,7 C 17,3 C 6,4 km/h (2 Bft) 95,74 %
28.07.2016 05:42 17,3 C 96 % 1016,0 hPa 0,0 l/m 3,1 km/h (1 Bft) SW 218 0 min 0,000 mm 0,0 UV-I 0 W/m 16,7 C 17,3 C 4,8 km/h (1 Bft) 97,92 %
28.07.2016 05:44 17,3 C 96 % 1015,9 hPa 0,0 l/m 2,3 km/h (1 Bft) SW 218 0 min 0,000 mm 0,0 UV-I 0 W/m 16,7 C 17,3 C 4,8 km/h (1 Bft) 97,87 %
28.07.2016 05:46 17,3 C 96 % 1015,9 hPa 0,0 l/m 2,4 km/h (1 Bft) SW 218 0 min 0,000 mm 0,0 UV-I 1 W/m 16,7 C 17,3 C 3,2 km/h (1 Bft) 100,00 %
28.07.2016 05:48 17,3 C 96 % 1015,9 hPa 0,0 l/m 3,1 km/h (1 Bft) SW 218 0 min 0,000 mm 0,0 UV-I 5 W/m 16,7 C 17,3 C 4,8 km/h (1 Bft) 97,87 %
28.07.2016 05:50 17,3 C 96 % 1015,8 hPa 0,0 l/m 2,2 km/h (1 Bft) SW 218 0 min 0,000 mm 0,0 UV-I 7 W/m 16,7 C 17,3 C 4,8 km/h (1 Bft) 100,00 %
28.07.2016 05:52 17,3 C 96 % 1015,9 hPa 0,0 l/m 3,0 km/h (1 Bft) S-SW 201 0 min 0,000 mm 0,0 UV-I 7 W/m 16,7 C 17,3 C 4,8 km/h (1 Bft) 97,22 %
28.07.2016 05:54 17,3 C 96 % 1015,8 hPa 0,0 l/m 2,8 km/h (1 Bft) S-SW 201 0 min 0,000 mm 0,0 UV-I 7 W/m 16,7 C 17,3 C 4,8 km/h (1 Bft) 100,00 %
28.07.2016 05:56 17,3 C 96 % 1015,8 hPa 0,0 l/m 2,6 km/h (1 Bft) S-SW 201 0 min 0,000 mm 0,0 UV-I 7 W/m 16,7 C 17,3 C 4,8 km/h (1 Bft) 100,00 %
28.07.2016 05:58 17,3 C 96 % 1015,9 hPa 0,0 l/m 2,2 km/h (1 Bft) S-SW 201 0 min 0,000 mm 0,0 UV-I 7 W/m 16,7 C 17,3 C 4,8 km/h (1 Bft) 100,00 %
28.07.2016 06:00 17,3 C 96 % 1015,9 hPa 0,0 l/m 2,9 km/h (1 Bft) S-SW 201 0 min 0,000 mm 0,0 UV-I 7 W/m 16,7 C 17,3 C 4,8 km/h (1 Bft) 97,87 %
28.07.2016 06:02 17,3 C 96 % 1015,8 hPa 0,0 l/m 3,2 km/h (1 Bft) S-SW 201 0 min 0,000 mm 0,0 UV-I 7 W/m 16,7 C 17,3 C 4,8 km/h (1 Bft) 95,74 %
28.07.2016 06:04 17,3 C 96 % 1015,8 hPa 0,0 l/m 3,9 km/h (1 Bft) S-SW 201 0 min 0,000 mm 0,0 UV-I 8 W/m 16,7 C 17,3 C 6,4 km/h (2 Bft) 100,00 %
28.07.2016 06:06 17,3 C 96 % 1015,8 hPa 0,0 l/m 2,9 km/h (1 Bft) S-SW 201 0 min 0,000 mm 0,0 UV-I 9 W/m 16,7 C 17,3 C 4,8 km/h (1 Bft) 97,87 %
28.07.2016 06:08 17,3 C 96 % 1015,8 hPa 0,0 l/m 1,8 km/h (1 Bft) S-SW 201 0 min 0,000 mm 0,0 UV-I 9 W/m 16,7 C 17,3 C 3,2 km/h (1 Bft) 100,00 %
28.07.2016 06:10 17,4 C 96 % 1015,8 hPa 0,0 l/m 3,4 km/h (1 Bft) S-SW 201 0 min 0,000 mm 0,0 UV-I 9 W/m 16,8 C 17,4 C 4,8 km/h (1 Bft) 100,00 %
28.07.2016 06:12 17,4 C 96 % 1015,8 hPa 0,0 l/m 3,6 km/h (1 Bft) S-SW 201 0 min 0,000 mm 0,0 UV-I 9 W/m 16,8 C 17,4 C 6,4 km/h (2 Bft) 100,00 %
28.07.2016 06:14 17,4 C 96 % 1015,8 hPa 0,0 l/m 3,5 km/h (1 Bft) S-SW 201 0 min 0,000 mm 0,0 UV-I 9 W/m 16,8 C 17,4 C 6,4 km/h (2 Bft) 100,00 %
28.07.2016 06:16 17,3 C 96 % 1015,9 hPa 0,0 l/m 2,8 km/h (1 Bft) S-SW 207 0 min 0,000 mm 0,0 UV-I 9 W/m 16,7 C 17,3 C 6,4 km/h (2 Bft) 100,00 %
28.07.2016 06:18 17,3 C 96 % 1015,9 hPa 0,0 l/m 4,3 km/h (1 Bft) SW 227 0 min 0,000 mm 0,0 UV-I 7 W/m 16,7 C 17,3 C 6,4 km/h (2 Bft) 100,00 %
28.07.2016 06:20 17,3 C 96 % 1016,0 hPa 0,0 l/m 3,5 km/h (1 Bft) SW 227 0 min 0,000 mm 0,0 UV-I 7 W/m 16,7 C 17,3 C 4,8 km/h (1 Bft) 97,87 %
28.07.2016 06:22 17,4 C 96 % 1016,0 hPa 0,0 l/m 3,7 km/h (1 Bft) SW 218 0 min 0,000 mm 0,0 UV-I 8 W/m 16,8 C 17,4 C 4,8 km/h (1 Bft) 100,00 %
28.07.2016 06:24 17,4 C 96 % 1016,0 hPa 0,0 l/m 4,2 km/h (1 Bft) SW 214 0 min 0,000 mm 0,0 UV-I 9 W/m 16,8 C 17,4 C 6,4 km/h (2 Bft) 100,00 %
28.07.2016 06:26 17,4 C 96 % 1016,0 hPa 0,0 l/m 4,8 km/h (1 Bft) S 178 0 min 0,000 mm 0,0 UV-I 9 W/m 16,8 C 17,4 C 8,0 km/h (2 Bft) 100,00 %
28.07.2016 06:28 17,4 C 96 % 1015,9 hPa 0,0 l/m 4,6 km/h (1 Bft) S-SW 205 0 min 0,000 mm 0,0 UV-I 11 W/m 16,8 C 17,4 C 6,4 km/h (2 Bft) 97,14 %
28.07.2016 06:30 17,4 C 96 % 1015,9 hPa 0,0 l/m 4,7 km/h (1 Bft) SW 214 0 min 0,000 mm 0,0 UV-I 12 W/m 16,8 C 17,4 C 6,4 km/h (2 Bft) 100,00 %
28.07.2016 06:32 17,3 C 96 % 1015,9 hPa 0,0 l/m 4,8 km/h (1 Bft) S-SW 205 0 min 0,000 mm 0,0 UV-I 12 W/m 16,7 C 17,3 C 6,4 km/h (2 Bft) 97,87 %
28.07.2016 06:34 17,4 C 96 % 1016,0 hPa 0,0 l/m 4,0 km/h (1 Bft) S-SW 212 0 min 0,000 mm 0,0 UV-I 14 W/m 16,8 C 17,4 C 6,4 km/h (2 Bft) 97,87 %
28.07.2016 06:36 17,4 C 96 % 1015,9 hPa 0,0 l/m 3,0 km/h (1 Bft) S-SW 208 0 min 0,000 mm 0,0 UV-I 15 W/m 16,8 C 17,4 C 6,4 km/h (2 Bft) 97,87 %
28.07.2016 06:38 17,4 C 96 % 1016,0 hPa 0,0 l/m 2,1 km/h (1 Bft) SW 222 0 min 0,000 mm 0,0 UV-I 17 W/m 16,8 C 17,4 C 4,8 km/h (1 Bft) 97,87 %
28.07.2016 06:40 17,4 C 96 % 1016,1 hPa 0,0 l/m 1,7 km/h (1 Bft) SW 222 0 min 0,000 mm 0,0 UV-I 19 W/m 16,8 C 17,4 C 4,8 km/h (1 Bft) 94,00 %
28.07.2016 06:42 17,4 C 96 % 1016,0 hPa 0,0 l/m 4,0 km/h (1 Bft) W-SW 244 0 min 0,000 mm 0,0 UV-I 21 W/m 16,8 C 17,4 C 4,8 km/h (1 Bft) 93,62 %
28.07.2016 06:44 17,4 C 96 % 1016,0 hPa 0,0 l/m 2,5 km/h (1 Bft) SW 225 0 min 0,000 mm 0,0 UV-I 23 W/m 16,8 C 17,4 C 4,8 km/h (1 Bft) 97,92 %
28.07.2016 06:46 17,4 C 96 % 1016,0 hPa 0,0 l/m 4,2 km/h (1 Bft) W-SW 241 0 min 0,000 mm 0,0 UV-I 25 W/m 16,8 C 17,4 C 6,4 km/h (2 Bft) 95,74 %
28.07.2016 06:48 17,4 C 96 % 1016,0 hPa 0,0 l/m 3,2 km/h (1 Bft) W-SW 241 0 min 0,000 mm 0,0 UV-I 26 W/m 16,8 C 17,4 C 4,8 km/h (1 Bft) 97,87 %
28.07.2016 06:50 17,4 C 96 % 1016,0 hPa 0,0 l/m 3,7 km/h (1 Bft) S-SW 205 0 min 0,000 mm 0,0 UV-I 26 W/m 16,8 C 17,4 C 4,8 km/h (1 Bft) 98,00 %
28.07.2016 06:52 17,4 C 96 % 1016,0 hPa 0,0 l/m 2,5 km/h (1 Bft) S-SW 205 0 min 0,000 mm 0,0 UV-I 25 W/m 16,8 C 17,4 C 4,8 km/h (1 Bft) 97,87 %
28.07.2016 06:54 17,4 C 96 % 1016,1 hPa 0,0 l/m 2,8 km/h (1 Bft) S-SW 205 0 min 0,000 mm 0,0 UV-I 25 W/m 16,8 C 17,4 C 6,4 km/h (2 Bft) 97,87 %
28.07.2016 06:56 17,5 C 96 % 1016,1 hPa 0,0 l/m 3,2 km/h (1 Bft) S-SW 205 0 min 0,000 mm 0,0 UV-I 25 W/m 16,9 C 17,5 C 4,8 km/h (1 Bft) 95,74 %
28.07.2016 06:58 17,5 C 96 % 1016,1 hPa 0,0 l/m 3,7 km/h (1 Bft) S-SW 205 0 min 0,000 mm 0,0 UV-I 25 W/m 16,9 C 17,5 C 4,8 km/h (1 Bft) 91,49 %
28.07.2016 07:00 17,5 C 96 % 1016,1 hPa 0,0 l/m 1,8 km/h (1 Bft) S-SW 205 0 min 0,000 mm 0,0 UV-I 25 W/m 16,9 C 17,5 C 3,2 km/h (1 Bft) 100,00 %
28.07.2016 07:02 17,5 C 96 % 1016,1 hPa 0,0 l/m 1,8 km/h (1 Bft) S-SW 205 0 min 0,000 mm 0,0 UV-I 26 W/m 16,9 C 17,5 C 3,2 km/h (1 Bft) 93,62 %
28.07.2016 07:04 17,5 C 96 % 1016,1 hPa 0,0 l/m 1,9 km/h (1 Bft) S-SW 205 0 min 0,000 mm 0,0 UV-I 30 W/m 16,9 C 17,5 C 3,2 km/h (1 Bft) 95,74 %
28.07.2016 07:06 17,5 C 96 % 1016,1 hPa 0,0 l/m 1,7 km/h (1 Bft) S-SW 205 0 min 0,000 mm 0,0 UV-I 30 W/m 16,9 C 17,5 C 3,2 km/h (1 Bft) 100,00 %
28.07.2016 07:08 17,5 C 96 % 1016,2 hPa 0,0 l/m 2,1 km/h (1 Bft) S-SW 204 0 min 0,000 mm 0,0 UV-I 32 W/m 16,9 C 17,5 C 4,8 km/h (1 Bft) 97,87 %
28.07.2016 07:10 17,5 C 96 % 1016,1 hPa 0,0 l/m 2,6 km/h (1 Bft) S-SW 204 0 min 0,000 mm 0,0 UV-I 35 W/m 16,9 C 17,5 C 4,8 km/h (1 Bft) 98,00 %
28.07.2016 07:12 17,6 C 96 % 1016,1 hPa 0,0 l/m 2,5 km/h (1 Bft) S-SW 204 0 min 0,000 mm 0,0 UV-I 38 W/m 17,0 C 17,6 C 4,8 km/h (1 Bft) 100,00 %
28.07.2016 07:14 17,6 C 96 % 1016,1 hPa 0,0 l/m 2,7 km/h (1 Bft) S-SW 204 0 min 0,000 mm 0,0 UV-I 42 W/m 17,0 C 17,6 C 4,8 km/h (1 Bft) 97,87 %
28.07.2016 07:16 17,6 C 96 % 1016,1 hPa 0,0 l/m 3,4 km/h (1 Bft) S-SW 204 0 min 0,000 mm 0,0 UV-I 46 W/m 17,0 C 17,6 C 4,8 km/h (1 Bft) 97,87 %
28.07.2016 07:18 17,6 C 96 % 1016,1 hPa 0,0 l/m 2,5 km/h (1 Bft) S-SW 205 0 min 0,000 mm 0,0 UV-I 48 W/m 17,0 C 17,6 C 3,2 km/h (1 Bft) 100,00 %
28.07.2016 07:20 17,6 C 96 % 1016,2 hPa 0,0 l/m 2,4 km/h (1 Bft) S-SW 205 0 min 0,000 mm 0,0 UV-I 50 W/m 17,0 C 17,6 C 3,2 km/h (1 Bft) 100,00 %
28.07.2016 07:22 17,6 C 96 % 1016,1 hPa 0,0 l/m 2,3 km/h (1 Bft) S-SW 204 0 min 0,000 mm 0,0 UV-I 53 W/m 17,0 C 17,6 C 4,8 km/h (1 Bft) 97,44 %
28.07.2016 07:24 17,6 C 96 % 1016,1 hPa 0,0 l/m 2,6 km/h (1 Bft) S-SW 204 0 min 0,000 mm 0,0 UV-I 57 W/m 17,0 C 17,6 C 4,8 km/h (1 Bft) 100,00 %
28.07.2016 07:26 17,7 C 96 % 1016,1 hPa 0,0 l/m 1,8 km/h (1 Bft) S-SW 204 0 min 0,000 mm 0,0 UV-I 62 W/m 17,1 C 17,7 C 3,2 km/h (1 Bft) 100,00 %
28.07.2016 07:28 17,6 C 96 % 1016,1 hPa 0,0 l/m 2,0 km/h (1 Bft) S-SW 204 0 min 0,000 mm 0,0 UV-I 63 W/m 17,0 C 17,6 C 3,2 km/h (1 Bft) 97,87 %
28.07.2016 07:30 17,7 C 96 % 1016,1 hPa 0,0 l/m 3,2 km/h (1 Bft) S-SW 204 0 min 0,000 mm 0,0 UV-I 63 W/m 17,1 C 17,7 C 6,4 km/h (2 Bft) 98,00 %
28.07.2016 07:32 17,7 C 96 % 1016,1 hPa 0,0 l/m 3,0 km/h (1 Bft) S-SW 204 0 min 0,000 mm 0,0 UV-I 64 W/m 17,1 C 17,7 C 4,8 km/h (1 Bft) 97,87 %
28.07.2016 07:34 17,7 C 96 % 1016,2 hPa 0,0 l/m 2,2 km/h (1 Bft) S-SW 204 0 min 0,000 mm 0,0 UV-I 67 W/m 17,1 C 17,7 C 3,2 km/h (1 Bft) 100,00 %
28.07.2016 07:36 17,7 C 96 % 1016,2 hPa 0,0 l/m 2,0 km/h (1 Bft) S-SW 204 0 min 0,000 mm 0,0 UV-I 69 W/m 17,1 C 17,7 C 3,2 km/h (1 Bft) 100,00 %
28.07.2016 07:38 17,8 C 96 % 1016,3 hPa 0,0 l/m 3,5 km/h (1 Bft) SW 219 0 min 0,000 mm 0,0 UV-I 69 W/m 17,2 C 17,8 C 6,4 km/h (2 Bft) 100,00 %
28.07.2016 07:40 17,7 C 96 % 1016,3 hPa 0,0 l/m 3,8 km/h (1 Bft) SW 229 0 min 0,000 mm 0,0 UV-I 70 W/m 17,1 C 17,7 C 4,8 km/h (1 Bft) 100,00 %
28.07.2016 07:42 17,7 C 96 % 1016,3 hPa 0,0 l/m 4,4 km/h (1 Bft) SW 229 0 min 0,000 mm 0,0 UV-I 74 W/m 17,1 C 17,7 C 6,4 km/h (2 Bft) 100,00 %
28.07.2016 07:44 17,7 C 95 % 1016,3 hPa 0,0 l/m 1,3 km/h (1 Bft) SW 229 0 min 0,000 mm 0,0 UV-I 77 W/m 16,9 C 17,7 C 3,2 km/h (1 Bft) 100,00 %
28.07.2016 07:46 17,7 C 95 % 1016,4 hPa 0,0 l/m 5,2 km/h (1 Bft) SW 232 0 min 0,000 mm 0,0 UV-I 79 W/m 16,9 C 17,7 C 6,4 km/h (2 Bft) 100,00 %
28.07.2016 07:48 17,7 C 95 % 1016,4 hPa 0,0 l/m 4,3 km/h (1 Bft) SW 218 0 min 0,000 mm 0,0 UV-I 79 W/m 16,9 C 17,7 C 6,4 km/h (2 Bft) 97,87 %
28.07.2016 07:50 17,7 C 95 % 1016,4 hPa 0,0 l/m 2,4 km/h (1 Bft) SW 218 0 min 0,000 mm 0,0 UV-I 80 W/m 16,9 C 17,7 C 4,8 km/h (1 Bft) 100,00 %
28.07.2016 07:52 17,7 C 95 % 1016,4 hPa 0,0 l/m 3,7 km/h (1 Bft) SW 218 0 min 0,000 mm 0,0 UV-I 83 W/m 16,9 C 17,7 C 4,8 km/h (1 Bft) 97,87 %
28.07.2016 07:54 17,8 C 94 % 1016,4 hPa 0,0 l/m 2,7 km/h (1 Bft) SW 218 0 min 0,000 mm 0,0 UV-I 86 W/m 16,8 C 17,8 C 4,8 km/h (1 Bft) 100,00 %
28.07.2016 07:56 17,8 C 95 % 1016,4 hPa 0,0 l/m 3,2 km/h (1 Bft) SW 218 0 min 0,000 mm 0,0 UV-I 89 W/m 17,0 C 17,8 C 4,8 km/h (1 Bft) 100,00 %
28.07.2016 07:58 17,8 C 95 % 1016,4 hPa 0,0 l/m 2,0 km/h (1 Bft) SW 219 0 min 0,000 mm 0,0 UV-I 92 W/m 17,0 C 17,8 C 4,8 km/h (1 Bft) 100,00 %
28.07.2016 08:00 17,9 C 95 % 1016,4 hPa 0,0 l/m 3,7 km/h (1 Bft) W-SW 250 0 min 0,000 mm 0,0 UV-I 95 W/m 17,1 C 17,9 C 4,8 km/h (1 Bft) 96,00 %
28.07.2016 08:02 17,9 C 95 % 1016,4 hPa 0,0 l/m 3,8 km/h (1 Bft) W-SW 250 0 min 0,025 mm 0,0 UV-I 95 W/m 17,1 C 17,9 C 6,4 km/h (2 Bft) 97,44 %
28.07.2016 08:04 17,9 C 94 % 1016,4 hPa 0,0 l/m 5,3 km/h (1 Bft) SW 219 0 min 0,000 mm 0,0 UV-I 95 W/m 16,9 C 17,9 C 8,0 km/h (2 Bft) 100,00 %
28.07.2016 08:06 17,9 C 94 % 1016,4 hPa 0,0 l/m 4,5 km/h (1 Bft) W-SW 250 0 min 0,000 mm 0,0 UV-I 93 W/m 16,9 C 17,9 C 6,4 km/h (2 Bft) 97,87 %
28.07.2016 08:08 17,9 C 94 % 1016,4 hPa 0,0 l/m 4,7 km/h (1 Bft) SW 236 0 min 0,000 mm 0,0 UV-I 95 W/m 16,9 C 17,9 C 8,0 km/h (2 Bft) 100,00 %
28.07.2016 08:10 17,9 C 94 % 1016,4 hPa 0,0 l/m 5,0 km/h (1 Bft) W-SW 253 0 min 0,000 mm 0,0 UV-I 95 W/m 16,9 C 17,9 C 6,4 km/h (2 Bft) 97,87 %
28.07.2016 08:12 18,0 C 94 % 1016,4 hPa 0,0 l/m 4,2 km/h (1 Bft) SW 235 0 min 0,000 mm 0,0 UV-I 95 W/m 17,0 C 18,0 C 6,4 km/h (2 Bft) 100,00 %
28.07.2016 08:14 18,0 C 94 % 1016,5 hPa 0,0 l/m 4,0 km/h (1 Bft) SW 234 0 min 0,000 mm 0,0 UV-I 96 W/m 17,0 C 18,0 C 6,4 km/h (2 Bft) 100,00 %
28.07.2016 08:16 18,1 C 94 % 1016,5 hPa 0,0 l/m 5,6 km/h (1 Bft) SW 229 0 min 0,000 mm 0,0 UV-I 98 W/m 17,1 C 18,1 C 9,7 km/h (2 Bft) 95,74 %
28.07.2016 08:18 18,1 C 94 % 1016,5 hPa 0,0 l/m 6,5 km/h (2 Bft) SW 236 0 min 0,000 mm 0,3 UV-I 103 W/m 17,1 C 18,1 C 8,0 km/h (2 Bft) 97,87 %
28.07.2016 08:20 18,1 C 93 % 1016,5 hPa 0,0 l/m 4,3 km/h (1 Bft) SW 236 0 min 0,000 mm 0,5 UV-I 111 W/m 16,9 C 18,1 C 8,0 km/h (2 Bft) 97,87 %
28.07.2016 08:22 18,1 C 94 % 1016,5 hPa 0,0 l/m 3,8 km/h (1 Bft) W-SW 238 0 min 0,000 mm 0,5 UV-I 119 W/m 17,1 C 18,1 C 8,0 km/h (2 Bft) 97,87 %
28.07.2016 08:24 18,2 C 94 % 1016,5 hPa 0,0 l/m 5,0 km/h (1 Bft) S 187 0 min 0,000 mm 0,6 UV-I 123 W/m 17,2 C 18,2 C 8,0 km/h (2 Bft) 100,00 %
28.07.2016 08:26 18,2 C 94 % 1016,6 hPa 0,0 l/m 5,2 km/h (1 Bft) S-SW 213 0 min 0,000 mm 0,6 UV-I 126 W/m 17,2 C 18,2 C 9,7 km/h (2 Bft) 100,00 %
28.07.2016 08:28 18,2 C 94 % 1016,5 hPa 0,0 l/m 5,3 km/h (1 Bft) S-SW 199 0 min 0,000 mm 0,6 UV-I 129 W/m 17,2 C 18,2 C 8,0 km/h (2 Bft) 95,74 %
28.07.2016 08:30 18,2 C 94 % 1016,6 hPa 0,0 l/m 7,9 km/h (2 Bft) S 176 0 min 0,000 mm 0,6 UV-I 134 W/m 17,2 C 17,5 C 11,3 km/h (2 Bft) 100,00 %
28.07.2016 08:32 18,2 C 94 % 1016,6 hPa 0,0 l/m 5,1 km/h (1 Bft) SW 236 0 min 0,000 mm 0,6 UV-I 137 W/m 17,2 C 18,2 C 9,7 km/h (2 Bft) 95,74 %
28.07.2016 08:34 18,2 C 94 % 1016,6 hPa 0,0 l/m 6,7 km/h (2 Bft) SW 228 0 min 0,000 mm 0,7 UV-I 142 W/m 17,2 C 18,1 C 11,3 km/h (2 Bft) 98,00 %
28.07.2016 08:36 18,2 C 94 % 1016,6 hPa 0,0 l/m 7,0 km/h (2 Bft) S-SW 204 0 min 0,000 mm 0,7 UV-I 148 W/m 17,2 C 17,9 C 11,3 km/h (2 Bft) 97,87 %
28.07.2016 08:38 18,3 C 93 % 1016,6 hPa 0,0 l/m 8,7 km/h (2 Bft) S 177 0 min 0,000 mm 0,7 UV-I 155 W/m 17,1 C 17,3 C 11,3 km/h (2 Bft) 97,87 %
28.07.2016 08:40 18,3 C 93 % 1016,6 hPa 0,0 l/m 6,6 km/h (2 Bft) S-SW 209 0 min 0,000 mm 0,8 UV-I 164 W/m 17,1 C 18,2 C 9,7 km/h (2 Bft) 95,74 %
28.07.2016 08:42 18,3 C 93 % 1016,6 hPa 0,0 l/m 6,4 km/h (2 Bft) SW 235 0 min 0,000 mm 0,8 UV-I 169 W/m 17,1 C 18,3 C 9,7 km/h (2 Bft) 97,87 %
28.07.2016 08:44 18,4 C 93 % 1016,5 hPa 0,0 l/m 6,0 km/h (2 Bft) S-SW 197 0 min 0,000 mm 0,8 UV-I 175 W/m 17,2 C 18,4 C 9,7 km/h (2 Bft) 97,87 %
28.07.2016 08:46 18,4 C 92 % 1016,5 hPa 0,0 l/m 8,6 km/h (2 Bft) S-SW 202 0 min 0,000 mm 0,9 UV-I 181 W/m 17,1 C 17,4 C 12,9 km/h (3 Bft) 97,22 %
28.07.2016 08:48 18,4 C 92 % 1016,5 hPa 0,0 l/m 6,8 km/h (2 Bft) S-SW 206 0 min 0,000 mm 0,9 UV-I 185 W/m 17,1 C 18,2 C 12,9 km/h (3 Bft) 96,00 %
28.07.2016 08:50 18,4 C 92 % 1016,5 hPa 0,0 l/m 7,4 km/h (2 Bft) W-SW 250 0 min 0,000 mm 0,9 UV-I 186 W/m 17,1 C 17,9 C 12,9 km/h (3 Bft) 96,00 %
28.07.2016 08:52 18,5 C 91 % 1016,5 hPa 0,0 l/m 6,8 km/h (2 Bft) SW 230 0 min 0,000 mm 0,9 UV-I 185 W/m 17,0 C 18,3 C 11,3 km/h (2 Bft) 95,74 %
28.07.2016 08:54 18,5 C 91 % 1016,5 hPa 0,0 l/m 6,9 km/h (2 Bft) S-SW 195 0 min 0,000 mm 0,9 UV-I 185 W/m 17,0 C 18,3 C 12,9 km/h (3 Bft) 95,74 %
28.07.2016 08:56 18,6 C 91 % 1016,5 hPa 0,0 l/m 8,1 km/h (2 Bft) S 188 0 min 0,000 mm 0,9 UV-I 185 W/m 17,1 C 17,8 C 11,3 km/h (2 Bft) 97,87 %
28.07.2016 08:58 18,6 C 91 % 1016,5 hPa 0,0 l/m 6,0 km/h (2 Bft) S-SW 205 0 min 0,000 mm 0,9 UV-I 184 W/m 17,1 C 18,6 C 9,7 km/h (2 Bft) 97,87 %
28.07.2016 09:00 18,6 C 91 % 1016,5 hPa 0,0 l/m 5,9 km/h (2 Bft) S-SO 167 0 min 0,077 mm 0,9 UV-I 183 W/m 17,1 C 18,6 C 9,7 km/h (2 Bft) 93,62 %
28.07.2016 09:02 18,6 C 90 % 1016,5 hPa 0,0 l/m 6,4 km/h (2 Bft) S-SW 192 0 min 0,000 mm 0,9 UV-I 184 W/m 16,9 C 18,6 C 9,7 km/h (2 Bft) 95,74 %
28.07.2016 09:04 18,7 C 91 % 1016,6 hPa 0,0 l/m 5,5 km/h (1 Bft) S 190 0 min 0,000 mm 1,0 UV-I 186 W/m 17,2 C 18,7 C 9,7 km/h (2 Bft) 98,00 %
28.07.2016 09:06 18,7 C 91 % 1016,6 hPa 0,0 l/m 6,4 km/h (2 Bft) S 181 0 min 0,000 mm 1,0 UV-I 189 W/m 17,2 C 18,7 C 9,7 km/h (2 Bft) 100,00 %
28.07.2016 09:08 18,7 C 91 % 1016,6 hPa 0,0 l/m 6,2 km/h (2 Bft) S-SW 209 0 min 0,000 mm 1,0 UV-I 192 W/m 17,2 C 18,7 C 11,3 km/h (2 Bft) 100,00 %
28.07.2016 09:10 18,7 C 91 % 1016,6 hPa 0,0 l/m 8,0 km/h (2 Bft) W-SW 251 0 min 0,000 mm 1,0 UV-I 195 W/m 17,2 C 18,0 C 12,9 km/h (3 Bft) 100,00 %
28.07.2016 09:12 18,7 C 90 % 1016,6 hPa 0,0 l/m 6,7 km/h (2 Bft) S-SW 203 0 min 0,000 mm 1,1 UV-I 199 W/m 17,0 C 18,6 C 11,3 km/h (2 Bft) 97,87 %
28.07.2016 09:14 18,7 C 91 % 1016,7 hPa 0,0 l/m 6,0 km/h (2 Bft) S 171 0 min 0,000 mm 1,1 UV-I 203 W/m 17,2 C 18,7 C 9,7 km/h (2 Bft) 93,62 %
28.07.2016 09:16 18,7 C 90 % 1016,6 hPa 0,0 l/m 6,2 km/h (2 Bft) S 182 0 min 0,000 mm 1,1 UV-I 209 W/m 17,0 C 18,7 C 9,7 km/h (2 Bft) 97,87 %
28.07.2016 09:18 18,7 C 90 % 1016,6 hPa 0,0 l/m 5,6 km/h (1 Bft) W-SW 246 0 min 0,000 mm 1,2 UV-I 213 W/m 17,0 C 18,7 C 11,3 km/h (2 Bft) 100,00 %
28.07.2016 09:20 18,7 C 90 % 1016,6 hPa 0,0 l/m 8,2 km/h (2 Bft) S 176 0 min 0,000 mm 1,2 UV-I 216 W/m 17,0 C 17,9 C 12,9 km/h (3 Bft) 98,00 %
28.07.2016 09:22 18,7 C 90 % 1016,7 hPa 0,0 l/m 5,7 km/h (1 Bft) W-SW 250 0 min 0,000 mm 1,2 UV-I 216 W/m 17,0 C 18,7 C 9,7 km/h (2 Bft) 97,92 %
28.07.2016 09:24 18,8 C 90 % 1016,6 hPa 0,0 l/m 7,5 km/h (2 Bft) S 185 0 min 0,000 mm 1,2 UV-I 215 W/m 17,1 C 18,3 C 12,9 km/h (3 Bft) 100,00 %
28.07.2016 09:26 18,8 C 90 % 1016,6 hPa 0,0 l/m 6,9 km/h (2 Bft) SW 232 0 min 0,000 mm 1,3 UV-I 219 W/m 17,1 C 18,6 C 11,3 km/h (2 Bft) 100,00 %
28.07.2016 09:28 18,8 C 90 % 1016,6 hPa 0,0 l/m 5,7 km/h (1 Bft) SW 220 0 min 0,000 mm 1,3 UV-I 228 W/m 17,1 C 18,8 C 8,0 km/h (2 Bft) 100,00 %
28.07.2016 09:30 18,8 C 90 % 1016,7 hPa 0,0 l/m 6,6 km/h (2 Bft) W 273 0 min 0,000 mm 1,4 UV-I 232 W/m 17,1 C 18,7 C 11,3 km/h (2 Bft) 100,00 %
28.07.2016 09:32 18,9 C 90 % 1016,6 hPa 0,0 l/m 6,4 km/h (2 Bft) W-SW 251 0 min 0,000 mm 1,4 UV-I 232 W/m 17,2 C 18,9 C 11,3 km/h (2 Bft) 97,37 %
28.07.2016 09:34 19,0 C 90 % 1016,7 hPa 0,0 l/m 7,7 km/h (2 Bft) W 279 0 min 0,000 mm 1,4 UV-I 240 W/m 17,3 C 18,4 C 11,3 km/h (2 Bft) 100,00 %
28.07.2016 09:36 19,1 C 89 % 1016,7 hPa 0,0 l/m 6,0 km/h (2 Bft) S-SW 205 0 min 0,000 mm 1,5 UV-I 259 W/m 17,2 C 19,1 C 9,7 km/h (2 Bft) 97,87 %
28.07.2016 09:38 19,1 C 90 % 1016,7 hPa 0,0 l/m 7,2 km/h (2 Bft) W-SW 244 0 min 0,000 mm 1,6 UV-I 277 W/m 17,4 C 18,7 C 12,9 km/h (3 Bft) 100,00 %
28.07.2016 09:40 19,2 C 89 % 1016,7 hPa 0,0 l/m 5,5 km/h (1 Bft) SW 226 0 min 0,000 mm 1,5 UV-I 273 W/m 17,3 C 19,2 C 9,7 km/h (2 Bft) 97,87 %
28.07.2016 09:42 19,2 C 89 % 1016,7 hPa 0,0 l/m 7,4 km/h (2 Bft) W 273 0 min 0,000 mm 1,5 UV-I 256 W/m 17,3 C 18,8 C 11,3 km/h (2 Bft) 97,87 %
28.07.2016 09:44 19,2 C 89 % 1016,7 hPa 0,0 l/m 6,2 km/h (2 Bft) SW 232 0 min 0,000 mm 1,5 UV-I 250 W/m 17,3 C 19,2 C 11,3 km/h (2 Bft) 100,00 %
28.07.2016 09:46 19,3 C 89 % 1016,7 hPa 0,0 l/m 9,0 km/h (2 Bft) W-SW 257 0 min 0,000 mm 1,4 UV-I 245 W/m 17,4 C 18,2 C 14,5 km/h (3 Bft) 100,00 %
28.07.2016 09:48 19,3 C 88 % 1016,7 hPa 0,0 l/m 7,5 km/h (2 Bft) W 280 0 min 0,000 mm 1,4 UV-I 226 W/m 17,3 C 18,8 C 14,5 km/h (3 Bft) 98,00 %
28.07.2016 09:50 19,3 C 88 % 1016,7 hPa 0,0 l/m 6,9 km/h (2 Bft) W-SW 246 0 min 0,000 mm 1,3 UV-I 217 W/m 17,3 C 19,1 C 11,3 km/h (2 Bft) 100,00 %
28.07.2016 09:52 19,3 C 89 % 1016,7 hPa 0,0 l/m 5,6 km/h (1 Bft) W-SW 257 0 min 0,000 mm 1,4 UV-I 226 W/m 17,4 C 19,3 C 9,7 km/h (2 Bft) 100,00 %
28.07.2016 09:54 19,3 C 89 % 1016,7 hPa 0,0 l/m 4,8 km/h (1 Bft) W 261 0 min 0,000 mm 1,5 UV-I 232 W/m 17,4 C 19,3 C 6,4 km/h (2 Bft) 100,00 %
28.07.2016 09:56 19,3 C 86 % 1016,7 hPa 0,0 l/m 4,4 km/h (1 Bft) W-SW 254 0 min 0,000 mm 1,5 UV-I 230 W/m 16,9 C 19,3 C 8,0 km/h (2 Bft) 100,00 %
28.07.2016 09:58 19,3 C 87 % 1016,7 hPa 0,0 l/m 6,6 km/h (2 Bft) W 259 0 min 0,000 mm 1,4 UV-I 223 W/m 17,1 C 19,2 C 11,3 km/h (2 Bft) 100,00 %
28.07.2016 10:00 19,2 C 86 % 1016,7 hPa 0,0 l/m 7,2 km/h (2 Bft) W 273 0 min 0,127 mm 1,4 UV-I 221 W/m 16,8 C 18,9 C 11,3 km/h (2 Bft) 100,00 %
28.07.2016 10:02 19,2 C 86 % 1016,7 hPa 0,0 l/m 4,2 km/h (1 Bft) W 269 0 min 0,000 mm 1,4 UV-I 217 W/m 16,8 C 19,2 C 9,7 km/h (2 Bft) 100,00 %
28.07.2016 10:04 19,2 C 87 % 1016,7 hPa 0,0 l/m 3,2 km/h (1 Bft) W-SW 246 0 min 0,000 mm 1,3 UV-I 208 W/m 17,0 C 19,2 C 6,4 km/h (2 Bft) 100,00 %
28.07.2016 10:06 19,2 C 87 % 1016,7 hPa 0,0 l/m 6,0 km/h (2 Bft) W-SW 246 0 min 0,000 mm 1,3 UV-I 199 W/m 17,0 C 19,2 C 11,3 km/h (2 Bft) 100,00 %
28.07.2016 10:08 19,2 C 87 % 1016,7 hPa 0,0 l/m 6,7 km/h (2 Bft) W-SW 242 0 min 0,000 mm 1,2 UV-I 193 W/m 17,0 C 19,1 C 11,3 km/h (2 Bft) 100,00 %
28.07.2016 10:10 19,2 C 87 % 1016,7 hPa 0,0 l/m 6,8 km/h (2 Bft) W-SW 242 0 min 0,000 mm 1,3 UV-I 197 W/m 17,0 C 19,0 C 11,3 km/h (2 Bft) 100,00 %
28.07.2016 10:12 19,2 C 87 % 1016,6 hPa 0,0 l/m 4,8 km/h (1 Bft) W-SW 244 0 min 0,000 mm 1,3 UV-I 205 W/m 17,0 C 19,2 C 9,7 km/h (2 Bft) 100,00 %
28.07.2016 10:14 19,2 C 86 % 1016,6 hPa 0,0 l/m 4,8 km/h (1 Bft) W-SW 251 0 min 0,000 mm 1,3 UV-I 214 W/m 16,8 C 19,2 C 6,4 km/h (2 Bft) 97,87 %
28.07.2016 10:16 19,3 C 86 % 1016,6 hPa 0,0 l/m 6,2 km/h (2 Bft) W 260 0 min 0,000 mm 1,4 UV-I 224 W/m 16,9 C 19,3 C 11,3 km/h (2 Bft) 100,00 %
28.07.2016 10:18 19,3 C 86 % 1016,6 hPa 0,0 l/m 5,3 km/h (1 Bft) W 263 0 min 0,000 mm 1,4 UV-I 224 W/m 16,9 C 19,3 C 11,3 km/h (2 Bft) 100,00 %
28.07.2016 10:20 19,3 C 86 % 1016,6 hPa 0,0 l/m 5,5 km/h (1 Bft) SW 219 0 min 0,000 mm 1,4 UV-I 217 W/m 16,9 C 19,3 C 9,7 km/h (2 Bft) 100,00 %
28.07.2016 10:22 19,3 C 86 % 1016,6 hPa 0,0 l/m 6,7 km/h (2 Bft) SW 236 0 min 0,000 mm 1,4 UV-I 211 W/m 16,9 C 19,2 C 11,3 km/h (2 Bft) 97,87 %
28.07.2016 10:24 19,3 C 87 % 1016,6 hPa 0,0 l/m 5,2 km/h (1 Bft) W 259 0 min 0,000 mm 1,4 UV-I 208 W/m 17,1 C 19,3 C 6,4 km/h (2 Bft) 95,74 %
28.07.2016 10:26 19,4 C 86 % 1016,7 hPa 0,0 l/m 3,9 km/h (1 Bft) SW 226 0 min 0,000 mm 1,3 UV-I 203 W/m 17,0 C 19,4 C 9,7 km/h (2 Bft) 97,87 %
28.07.2016 10:28 19,4 C 85 % 1016,6 hPa 0,0 l/m 6,5 km/h (2 Bft) W 262 0 min 0,000 mm 1,4 UV-I 207 W/m 16,8 C 19,4 C 11,3 km/h (2 Bft) 100,00 %
28.07.2016 10:30 19,4 C 86 % 1016,6 hPa 0,0 l/m 5,9 km/h (2 Bft) SW 227 0 min 0,000 mm 1,4 UV-I 212 W/m 17,0 C 19,4 C 8,0 km/h (2 Bft) 98,00 %
28.07.2016 10:32 19,4 C 86 % 1016,6 hPa 0,0 l/m 6,6 km/h (2 Bft) W 277 0 min 0,000 mm 1,4 UV-I 213 W/m 17,0 C 19,3 C 11,3 km/h (2 Bft) 98,00 %
28.07.2016 10:34 19,5 C 86 % 1016,7 hPa 0,0 l/m 5,0 km/h (1 Bft) W-SW 253 0 min 0,000 mm 1,4 UV-I 210 W/m 17,1 C 19,5 C 9,7 km/h (2 Bft) 93,62 %
28.07.2016 10:36 19,4 C 86 % 1016,7 hPa 0,0 l/m 5,3 km/h (1 Bft) SW 236 0 min 0,000 mm 1,4 UV-I 212 W/m 17,0 C 19,4 C 8,0 km/h (2 Bft) 95,74 %
28.07.2016 10:38 19,4 C 86 % 1016,6 hPa 0,0 l/m 5,3 km/h (1 Bft) SW 232 0 min 0,000 mm 1,5 UV-I 216 W/m 17,0 C 19,4 C 6,4 km/h (2 Bft) 95,74 %
28.07.2016 10:40 19,5 C 88 % 1016,7 hPa 0,0 l/m 3,3 km/h (1 Bft) SW 235 0 min 0,000 mm 1,5 UV-I 220 W/m 17,5 C 19,5 C 4,8 km/h (1 Bft) 95,74 %
28.07.2016 10:42 19,6 C 87 % 1016,7 hPa 0,0 l/m 3,1 km/h (1 Bft) W-SW 238 0 min 0,000 mm 1,5 UV-I 224 W/m 17,4 C 19,6 C 4,8 km/h (1 Bft) 95,83 %
28.07.2016 10:44 19,7 C 86 % 1016,7 hPa 0,0 l/m 6,6 km/h (2 Bft) SW 216 0 min 0,000 mm 1,6 UV-I 227 W/m 17,3 C 19,6 C 12,9 km/h (3 Bft) 96,00 %
28.07.2016 10:46 19,7 C 84 % 1016,7 hPa 0,0 l/m 6,6 km/h (2 Bft) W-SW 251 0 min 0,000 mm 1,6 UV-I 228 W/m 16,9 C 19,6 C 11,3 km/h (2 Bft) 97,87 %
28.07.2016 10:48 19,7 C 84 % 1016,7 hPa 0,0 l/m 4,9 km/h (1 Bft) W-SW 250 0 min 0,000 mm 1,6 UV-I 225 W/m 16,9 C 19,7 C 9,7 km/h (2 Bft) 95,74 %
28.07.2016 10:50 19,7 C 84 % 1016,6 hPa 0,0 l/m 4,9 km/h (1 Bft) SW 233 0 min 0,000 mm 1,6 UV-I 225 W/m 16,9 C 19,7 C 8,0 km/h (2 Bft) 94,29 %
28.07.2016 10:52 19,7 C 85 % 1016,7 hPa 0,0 l/m 4,6 km/h (1 Bft) SW 234 0 min 0,000 mm 1,5 UV-I 221 W/m 17,1 C 19,7 C 8,0 km/h (2 Bft) 97,87 %
28.07.2016 10:54 19,7 C 85 % 1016,6 hPa 0,0 l/m 4,6 km/h (1 Bft) S-SW 208 0 min 0,000 mm 1,5 UV-I 215 W/m 17,1 C 19,7 C 8,0 km/h (2 Bft) 95,74 %
28.07.2016 10:56 19,8 C 85 % 1016,7 hPa 0,0 l/m 5,1 km/h (1 Bft) SW 227 0 min 0,000 mm 1,5 UV-I 208 W/m 17,2 C 19,8 C 9,7 km/h (2 Bft) 98,00 %
28.07.2016 10:58 19,7 C 84 % 1016,7 hPa 0,0 l/m 6,4 km/h (2 Bft) W-SW 241 0 min 0,000 mm 1,4 UV-I 201 W/m 16,9 C 19,7 C 11,3 km/h (2 Bft) 95,74 %
28.07.2016 11:00 19,7 C 84 % 1016,7 hPa 0,0 l/m 6,6 km/h (2 Bft) SW 236 0 min 0,000 mm 1,4 UV-I 196 W/m 16,9 C 19,6 C 11,3 km/h (2 Bft) 93,62 %
28.07.2016 11:02 19,7 C 84 % 1016,7 hPa 0,0 l/m 4,7 km/h (1 Bft) SW 229 0 min 0,127 mm 1,4 UV-I 195 W/m 16,9 C 19,7 C 8,0 km/h (2 Bft) 98,00 %
28.07.2016 11:04 19,7 C 84 % 1016,7 hPa 0,0 l/m 5,6 km/h (1 Bft) W-SW 254 0 min 0,000 mm 1,4 UV-I 197 W/m 16,9 C 19,7 C 9,7 km/h (2 Bft) 100,00 %
28.07.2016 11:06 19,7 C 85 % 1016,7 hPa 0,0 l/m 4,1 km/h (1 Bft) W-SW 254 0 min 0,000 mm 1,5 UV-I 203 W/m 17,1 C 19,7 C 6,4 km/h (2 Bft) 97,87 %
28.07.2016 11:08 19,7 C 85 % 1016,7 hPa 0,0 l/m 3,1 km/h (1 Bft) W-SW 255 0 min 0,000 mm 1,5 UV-I 210 W/m 17,1 C 19,7 C 4,8 km/h (1 Bft) 100,00 %
28.07.2016 11:10 19,7 C 86 % 1016,7 hPa 0,0 l/m 5,0 km/h (1 Bft) W-SW 249 0 min 0,000 mm 1,6 UV-I 219 W/m 17,3 C 19,7 C 11,3 km/h (2 Bft) 94,74 %
28.07.2016 11:12 19,8 C 85 % 1016,7 hPa 0,0 l/m 6,6 km/h (2 Bft) W-SW 240 0 min 0,000 mm 1,7 UV-I 233 W/m 17,2 C 19,7 C 12,9 km/h (3 Bft) 98,00 %
28.07.2016 11:14 19,8 C 84 % 1016,7 hPa 0,0 l/m 6,6 km/h (2 Bft) SW 223 0 min 0,000 mm 1,8 UV-I 244 W/m 17,0 C 19,7 C 11,3 km/h (2 Bft) 98,11 %
28.07.2016 11:16 19,8 C 85 % 1016,7 hPa 0,0 l/m 5,6 km/h (1 Bft) W-SW 257 0 min 0,000 mm 1,9 UV-I 253 W/m 17,2 C 19,8 C 8,0 km/h (2 Bft) 100,00 %
28.07.2016 11:18 19,8 C 85 % 1016,7 hPa 0,0 l/m 3,6 km/h (1 Bft) W 261 0 min 0,000 mm 1,9 UV-I 260 W/m 17,2 C 19,8 C 8,0 km/h (2 Bft) 100,00 %
28.07.2016 11:20 19,8 C 85 % 1016,7 hPa 0,0 l/m 4,4 km/h (1 Bft) W 279 0 min 0,000 mm 2,0 UV-I 268 W/m 17,2 C 19,8 C 9,7 km/h (2 Bft) 100,00 %
28.07.2016 11:22 19,9 C 87 % 1016,7 hPa 0,0 l/m 3,0 km/h (1 Bft) W-SW 250 0 min 0,000 mm 2,1 UV-I 274 W/m 17,7 C 19,9 C 6,4 km/h (2 Bft) 100,00 %
28.07.2016 11:24 19,9 C 86 % 1016,7 hPa 0,0 l/m 3,0 km/h (1 Bft) W 264 0 min 0,000 mm 2,1 UV-I 278 W/m 17,5 C 19,9 C 4,8 km/h (1 Bft) 95,74 %
28.07.2016 11:26 19,9 C 86 % 1016,7 hPa 0,0 l/m 3,3 km/h (1 Bft) W 271 0 min 0,000 mm 2,2 UV-I 280 W/m 17,5 C 19,9 C 6,4 km/h (2 Bft) 100,00 %
28.07.2016 11:28 19,9 C 87 % 1016,7 hPa 0,0 l/m 4,5 km/h (1 Bft) W 261 0 min 0,000 mm 2,2 UV-I 290 W/m 17,7 C 19,9 C 9,7 km/h (2 Bft) 100,00 %
28.07.2016 11:30 19,9 C 87 % 1016,7 hPa 0,0 l/m 4,2 km/h (1 Bft) W 277 0 min 0,000 mm 2,3 UV-I 305 W/m 17,7 C 19,9 C 6,4 km/h (2 Bft) 100,00 %
28.07.2016 11:32 19,9 C 88 % 1016,7 hPa 0,0 l/m 2,6 km/h (1 Bft) NW 324 0 min 0,000 mm 2,4 UV-I 315 W/m 17,8 C 19,9 C 4,8 km/h (1 Bft) 97,92 %
28.07.2016 11:34 20,1 C 88 % 1016,7 hPa 0,0 l/m 3,5 km/h (1 Bft) W 281 0 min 0,000 mm 2,5 UV-I 320 W/m 18,0 C 20,1 C 6,4 km/h (2 Bft) 100,00 %
28.07.2016 11:36 20,1 C 86 % 1016,7 hPa 0,0 l/m 0,5 km/h (0 Bft) W 281 0 min 0,000 mm 2,5 UV-I 321 W/m 17,7 C 20,1 C 1,6 km/h (1 Bft) 100,00 %
28.07.2016 11:38 20,1 C 86 % 1016,7 hPa 0,0 l/m 1,5 km/h (1 Bft) W 281 0 min 0,000 mm 2,5 UV-I 321 W/m 17,7 C 20,1 C 4,8 km/h (1 Bft) 100,00 %
28.07.2016 11:40 20,1 C 87 % 1016,7 hPa 0,0 l/m 1,6 km/h (1 Bft) W 270 0 min 0,000 mm 2,5 UV-I 323 W/m 17,9 C 20,1 C 4,8 km/h (1 Bft) 96,49 %
28.07.2016 11:44 20,1 C 86 % 1016,7 hPa 0,0 l/m 2,6 km/h (1 Bft) W-NW 283 0 min 0,000 mm 2,7 UV-I 341 W/m 17,7 C 20,1 C 3,2 km/h (1 Bft) 100,00 %
28.07.2016 11:46 20,2 C 86 % 1016,7 hPa 0,0 l/m 0,9 km/h (0 Bft) W-NW 283 0 min 0,000 mm 2,7 UV-I 334 W/m 17,8 C 20,2 C 3,2 km/h (1 Bft) 100,00 %
28.07.2016 11:50 20,2 C 85 % 1016,7 hPa 0,0 l/m 1,6 km/h (1 Bft) W 270 0 min 0,000 mm 2,6 UV-I 323 W/m 17,6 C 20,2 C 6,4 km/h (2 Bft) 100,00 %
28.07.2016 11:52 20,3 C 85 % 1016,7 hPa 0,0 l/m 2,1 km/h (1 Bft) W 271 0 min 0,000 mm 2,7 UV-I 332 W/m 17,7 C 20,3 C 3,2 km/h (1 Bft) 100,00 %
28.07.2016 11:54 20,2 C 84 % 1016,7 hPa 0,0 l/m 3,3 km/h (1 Bft) W 262 0 min 0,000 mm 2,9 UV-I 353 W/m 17,4 C 20,2 C 6,4 km/h (2 Bft) 100,00 %
28.07.2016 11:56 20,3 C 85 % 1016,6 hPa 0,0 l/m 2,7 km/h (1 Bft) W-NW 283 0 min 0,000 mm 3,2 UV-I 387 W/m 17,7 C 20,3 C 6,4 km/h (2 Bft) 100,00 %
28.07.2016 11:58 20,3 C 83 % 1016,6 hPa 0,0 l/m 2,7 km/h (1 Bft) W-NW 284 0 min 0,000 mm 3,2 UV-I 395 W/m 17,3 C 20,3 C 6,4 km/h (2 Bft) 100,00 %
28.07.2016 12:00 20,3 C 83 % 1016,6 hPa 0,0 l/m 2,9 km/h (1 Bft) W-NW 288 0 min 0,177 mm 3,2 UV-I 382 W/m 17,3 C 20,3 C 6,4 km/h (2 Bft) 100,00 %
28.07.2016 12:05 20,6 C 83 % 1016,6 hPa 0,0 l/m 3,2 km/h (1 Bft) NW 315 5 min 0,000 mm 3,8 UV-I 499 W/m 17,6 C 20,6 C 8,0 km/h (2 Bft) 100,00 %
28.07.2016 12:10 20,8 C 84 % 1016,6 hPa 0,0 l/m 1,6 km/h (1 Bft) W-SW 247 5 min 0,000 mm 4,1 UV-I 533 W/m 18,0 C 20,8 C 4,8 km/h (1 Bft) 100,00 %
28.07.2016 12:12 20,9 C 84 % 1016,5 hPa 0,0 l/m 5,3 km/h (1 Bft) W-SW 257 2 min 0,000 mm 3,8 UV-I 476 W/m 18,1 C 20,9 C 6,4 km/h (2 Bft) 100,00 %
28.07.2016 12:15 20,9 C 82 % 1016,5 hPa 0,0 l/m 3,2 km/h (1 Bft) W-SW 247 3 min 0,000 mm 4,4 UV-I 575 W/m 17,7 C 20,9 C 6,4 km/h (2 Bft) 100,00 %
28.07.2016 12:20 20,7 C 82 % 1016,5 hPa 0,0 l/m 3,2 km/h (1 Bft) S-SW 202 5 min 0,000 mm 4,1 UV-I 537 W/m 17,5 C 20,7 C 6,4 km/h (2 Bft) 100,00 %
28.07.2016 12:25 21,1 C 81 % 1016,5 hPa 0,0 l/m 1,6 km/h (1 Bft) S-SW 202 0 min 0,000 mm 3,4 UV-I 434 W/m 17,7 C 21,1 C 3,2 km/h (1 Bft) 75,44 %
28.07.2016 12:26 21,1 C 81 % 1016,4 hPa 0,0 l/m 2,4 km/h (1 Bft) N 355 0 min 0,000 mm 3,5 UV-I 436 W/m 17,7 C 21,1 C 3,2 km/h (1 Bft) 98,18 %
28.07.2016 12:28 21,1 C 81 % 1016,4 hPa 0,0 l/m 1,7 km/h (1 Bft) N-NW 328 0 min 0,000 mm 3,6 UV-I 463 W/m 17,7 C 21,1 C 3,2 km/h (1 Bft) 97,73 %
28.07.2016 12:30 21,2 C 83 % 1016,4 hPa 0,0 l/m 2,5 km/h (1 Bft) W-NW 286 0 min 0,000 mm 3,7 UV-I 466 W/m 18,2 C 21,2 C 4,8 km/h (1 Bft) 97,87 %
28.07.2016 12:32 21,2 C 81 % 1016,4 hPa 0,0 l/m 2,2 km/h (1 Bft) W 267 0 min 0,000 mm 3,7 UV-I 467 W/m 17,8 C 21,2 C 9,7 km/h (2 Bft) 95,74 %
28.07.2016 12:34 21,3 C 83 % 1016,4 hPa 0,0 l/m 2,4 km/h (1 Bft) W-SW 245 2 min 0,000 mm 3,8 UV-I 485 W/m 18,3 C 21,3 C 6,4 km/h (2 Bft) 98,00 %
28.07.2016 12:36 21,4 C 83 % 1016,4 hPa 0,0 l/m 1,9 km/h (1 Bft) S-SW 192 2 min 0,000 mm 4,3 UV-I 550 W/m 18,4 C 21,4 C 4,8 km/h (1 Bft) 97,87 %
28.07.2016 12:38 21,3 C 81 % 1016,4 hPa 0,0 l/m 4,0 km/h (1 Bft) S 190 2 min 0,000 mm 4,2 UV-I 534 W/m 17,9 C 21,3 C 8,0 km/h (2 Bft) 97,73 %
28.07.2016 12:40 21,2 C 80 % 1016,4 hPa 0,0 l/m 2,0 km/h (1 Bft) S 190 2 min 0,000 mm 4,4 UV-I 589 W/m 17,6 C 21,2 C 6,4 km/h (2 Bft) 97,62 %
28.07.2016 12:42 21,2 C 83 % 1016,4 hPa 0,0 l/m 1,9 km/h (1 Bft) W-SW 238 2 min 0,000 mm 4,2 UV-I 555 W/m 18,2 C 21,2 C 6,4 km/h (2 Bft) 98,21 %
28.07.2016 12:44 21,5 C 83 % 1016,4 hPa 0,0 l/m 4,8 km/h (1 Bft) SW 234 2 min 0,000 mm 4,3 UV-I 564 W/m 18,5 C 21,5 C 9,7 km/h (2 Bft) 93,62 %
28.07.2016 12:46 21,6 C 83 % 1016,3 hPa 0,0 l/m 3,7 km/h (1 Bft) W 277 2 min 0,000 mm 4,1 UV-I 524 W/m 18,6 C 21,6 C 9,7 km/h (2 Bft) 97,87 %
28.07.2016 12:48 21,7 C 82 % 1016,3 hPa 0,0 l/m 1,5 km/h (1 Bft) NW 308 2 min 0,000 mm 4,1 UV-I 521 W/m 18,5 C 21,7 C 4,8 km/h (1 Bft) 97,37 %
28.07.2016 12:50 21,8 C 78 % 1016,3 hPa 0,0 l/m 1,3 km/h (1 Bft) NW 311 2 min 0,000 mm 4,1 UV-I 515 W/m 17,8 C 21,8 C 4,8 km/h (1 Bft) 97,87 %
28.07.2016 12:52 21,7 C 80 % 1016,3 hPa 0,0 l/m 1,5 km/h (1 Bft) W 275 2 min 0,000 mm 4,1 UV-I 520 W/m 18,1 C 21,7 C 3,2 km/h (1 Bft) 98,00 %
28.07.2016 12:54 21,8 C 79 % 1016,3 hPa 0,0 l/m 2,7 km/h (1 Bft) NW 312 2 min 0,000 mm 4,2 UV-I 538 W/m 18,0 C 21,8 C 4,8 km/h (1 Bft) 98,00 %
28.07.2016 12:56 21,8 C 81 % 1016,3 hPa 0,0 l/m 4,1 km/h (1 Bft) W-NW 290 2 min 0,000 mm 3,9 UV-I 491 W/m 18,4 C 21,8 C 9,7 km/h (2 Bft) 93,62 %
28.07.2016 12:58 21,9 C 79 % 1016,3 hPa 0,0 l/m 2,6 km/h (1 Bft) NW 313 0 min 0,000 mm 3,6 UV-I 441 W/m 18,1 C 21,9 C 4,8 km/h (1 Bft) 95,12 %
28.07.2016 13:00 21,8 C 77 % 1016,3 hPa 0,0 l/m 0,9 km/h (0 Bft) NW 317 0 min 0,305 mm 3,3 UV-I 407 W/m 17,6 C 21,8 C 3,2 km/h (1 Bft) 97,87 %
28.07.2016 13:02 21,7 C 79 % 1016,3 hPa 0,0 l/m 2,2 km/h (1 Bft) W-NW 290 0 min 0,000 mm 3,2 UV-I 396 W/m 17,9 C 21,7 C 4,8 km/h (1 Bft) 100,00 %
28.07.2016 13:04 21,7 C 82 % 1016,3 hPa 0,0 l/m 1,0 km/h (0 Bft) W-NW 290 0 min 0,000 mm 3,2 UV-I 397 W/m 18,5 C 21,7 C 3,2 km/h (1 Bft) 100,00 %
28.07.2016 13:06 21,7 C 80 % 1016,3 hPa 0,0 l/m 4,0 km/h (1 Bft) S 189 0 min 0,000 mm 3,3 UV-I 405 W/m 18,1 C 21,7 C 6,4 km/h (2 Bft) 97,37 %
28.07.2016 13:08 21,6 C 80 % 1016,3 hPa 0,0 l/m 1,9 km/h (1 Bft) S 189 0 min 0,000 mm 3,3 UV-I 417 W/m 18,0 C 21,6 C 4,8 km/h (1 Bft) 96,23 %
28.07.2016 13:10 21,8 C 80 % 1016,2 hPa 0,0 l/m 3,4 km/h (1 Bft) W-SW 245 0 min 0,000 mm 3,4 UV-I 430 W/m 18,2 C 21,8 C 6,4 km/h (2 Bft) 100,00 %
28.07.2016 13:12 21,7 C 79 % 1016,1 hPa 0,0 l/m 3,4 km/h (1 Bft) SW 224 0 min 0,000 mm 3,6 UV-I 447 W/m 17,9 C 21,7 C 4,8 km/h (1 Bft) 97,92 %
28.07.2016 13:14 21,8 C 82 % 1016,1 hPa 0,0 l/m 2,7 km/h (1 Bft) W-NW 298 0 min 0,000 mm 3,6 UV-I 456 W/m 18,6 C 21,8 C 6,4 km/h (2 Bft) 100,00 %
28.07.2016 13:16 21,9 C 76 % 1016,1 hPa 0,0 l/m 2,5 km/h (1 Bft) NW 316 2 min 0,000 mm 3,8 UV-I 492 W/m 17,5 C 21,9 C 6,4 km/h (2 Bft) 98,18 %
28.07.2016 13:18 22,0 C 79 % 1016,1 hPa 0,0 l/m 4,5 km/h (1 Bft) SW 235 2 min 0,000 mm 3,9 UV-I 519 W/m 18,2 C 22,0 C 9,7 km/h (2 Bft) 97,62 %
28.07.2016 13:20 22,1 C 79 % 1016,1 hPa 0,0 l/m 6,1 km/h (2 Bft) W-SW 256 0 min 0,000 mm 3,8 UV-I 474 W/m 18,3 C 22,1 C 11,3 km/h (2 Bft) 100,00 %
28.07.2016 13:22 22,0 C 77 % 1016,1 hPa 0,0 l/m 2,2 km/h (1 Bft) W-SW 256 0 min 0,000 mm 3,7 UV-I 461 W/m 17,8 C 22,0 C 4,8 km/h (1 Bft) 100,00 %
28.07.2016 13:24 21,9 C 80 % 1016,0 hPa 0,0 l/m 1,0 km/h (0 Bft) N 355 0 min 0,000 mm 3,7 UV-I 459 W/m 18,3 C 21,9 C 3,2 km/h (1 Bft) 98,31 %
28.07.2016 13:26 22,0 C 78 % 1016,0 hPa 0,0 l/m 3,0 km/h (1 Bft) W 273 0 min 0,000 mm 3,8 UV-I 470 W/m 18,0 C 22,0 C 6,4 km/h (2 Bft) 97,87 %
28.07.2016 13:28 22,0 C 77 % 1016,0 hPa 0,0 l/m 3,0 km/h (1 Bft) W 281 2 min 0,000 mm 4,1 UV-I 524 W/m 17,8 C 22,0 C 6,4 km/h (2 Bft) 100,00 %
28.07.2016 13:30 22,1 C 79 % 1015,9 hPa 0,0 l/m 1,8 km/h (1 Bft) W-NW 283 2 min 0,000 mm 4,4 UV-I 553 W/m 18,3 C 22,1 C 4,8 km/h (1 Bft) 100,00 %
28.07.2016 13:32 22,1 C 77 % 1015,9 hPa 0,0 l/m 3,6 km/h (1 Bft) N-NO 26 2 min 0,000 mm 4,8 UV-I 622 W/m 17,9 C 22,1 C 11,3 km/h (2 Bft) 97,87 %
28.07.2016 13:34 22,2 C 79 % 1015,9 hPa 0,0 l/m 2,3 km/h (1 Bft) N 5 2 min 0,000 mm 4,2 UV-I 536 W/m 18,4 C 22,2 C 4,8 km/h (1 Bft) 100,00 %
28.07.2016 13:36 22,5 C 80 % 1015,9 hPa 0,0 l/m 1,9 km/h (1 Bft) N-NW 329 2 min 0,000 mm 3,8 UV-I 474 W/m 18,9 C 22,5 C 3,2 km/h (1 Bft) 100,00 %
28.07.2016 13:38 22,7 C 78 % 1015,9 hPa 0,0 l/m 1,5 km/h (1 Bft) N-NW 327 2 min 0,000 mm 3,8 UV-I 476 W/m 18,7 C 22,7 C 3,2 km/h (1 Bft) 100,00 %
28.07.2016 13:40 22,6 C 76 % 1015,8 hPa 0,0 l/m 1,2 km/h (1 Bft) N-NW 336 0 min 0,000 mm 3,6 UV-I 467 W/m 18,1 C 22,6 C 3,2 km/h (1 Bft) 100,00 %
28.07.2016 13:42 22,5 C 76 % 1015,8 hPa 0,0 l/m 1,2 km/h (1 Bft) N-NW 337 0 min 0,000 mm 3,6 UV-I 455 W/m 18,0 C 22,5 C 4,8 km/h (1 Bft) 100,00 %
28.07.2016 13:44 22,5 C 80 % 1015,8 hPa 0,0 l/m 1,8 km/h (1 Bft) NW 320 0 min 0,000 mm 3,5 UV-I 437 W/m 18,9 C 22,5 C 4,8 km/h (1 Bft) 100,00 %
28.07.2016 13:46 22,4 C 77 % 1015,7 hPa 0,0 l/m 3,0 km/h (1 Bft) N 355 0 min 0,000 mm 3,3 UV-I 420 W/m 18,2 C 22,4 C 6,4 km/h (2 Bft) 98,11 %
28.07.2016 13:48 22,3 C 77 % 1015,8 hPa 0,0 l/m 4,3 km/h (1 Bft) W 277 0 min 0,000 mm 3,2 UV-I 411 W/m 18,1 C 22,3 C 9,7 km/h (2 Bft) 98,00 %
28.07.2016 13:50 22,2 C 78 % 1015,8 hPa 0,0 l/m 2,9 km/h (1 Bft) NW 311 0 min 0,000 mm 3,2 UV-I 411 W/m 18,2 C 22,2 C 6,4 km/h (2 Bft) 100,00 %
28.07.2016 13:52 22,2 C 77 % 1015,8 hPa 0,0 l/m 4,7 km/h (1 Bft) W-NW 292 0 min 0,000 mm 3,3 UV-I 422 W/m 18,0 C 22,2 C 6,4 km/h (2 Bft) 100,00 %
28.07.2016 13:54 22,2 C 79 % 1015,8 hPa 0,0 l/m 2,4 km/h (1 Bft) W-NW 288 0 min 0,000 mm 3,4 UV-I 448 W/m 18,4 C 22,2 C 4,8 km/h (1 Bft) 100,00 %
28.07.2016 13:56 22,2 C 78 % 1015,7 hPa 0,0 l/m 0,8 km/h (0 Bft) NW 309 0 min 0,000 mm 3,5 UV-I 461 W/m 18,2 C 22,2 C 3,2 km/h (1 Bft) 100,00 %
28.07.2016 13:58 22,3 C 76 % 1015,7 hPa 0,0 l/m 4,8 km/h (1 Bft) S-SW 206 2 min 0,000 mm 3,7 UV-I 476 W/m 17,9 C 22,3 C 11,3 km/h (2 Bft) 100,00 %
28.07.2016 14:00 22,2 C 77 % 1015,7 hPa 0,0 l/m 2,9 km/h (1 Bft) W-NW 284 2 min 0,000 mm 3,8 UV-I 495 W/m 18,0 C 22,2 C 6,4 km/h (2 Bft) 100,00 %
28.07.2016 14:02 22,3 C 81 % 1015,7 hPa 0,0 l/m 2,4 km/h (1 Bft) W-SW 250 2 min 0,280 mm 3,8 UV-I 492 W/m 18,9 C 22,3 C 8,0 km/h (2 Bft) 97,87 %
28.07.2016 14:04 22,3 C 76 % 1015,6 hPa 0,0 l/m 7,5 km/h (2 Bft) W-SW 249 2 min 0,000 mm 3,7 UV-I 480 W/m 17,9 C 21,9 C 11,3 km/h (2 Bft) 100,00 %
28.07.2016 14:06 22,3 C 78 % 1015,7 hPa 0,0 l/m 3,0 km/h (1 Bft) W-NW 288 2 min 0,000 mm 3,7 UV-I 477 W/m 18,3 C 22,3 C 4,8 km/h (1 Bft) 98,08 %
28.07.2016 14:08 22,4 C 76 % 1015,7 hPa 0,0 l/m 3,5 km/h (1 Bft) W-SW 248 2 min 0,000 mm 3,7 UV-I 473 W/m 18,0 C 22,4 C 8,0 km/h (2 Bft) 97,87 %
28.07.2016 14:10 22,4 C 75 % 1015,7 hPa 0,0 l/m 3,8 km/h (1 Bft) W-NW 290 2 min 0,000 mm 3,7 UV-I 479 W/m 17,7 C 22,4 C 6,4 km/h (2 Bft) 100,00 %
28.07.2016 14:12 22,3 C 75 % 1015,6 hPa 0,0 l/m 6,5 km/h (2 Bft) W-SW 247 2 min 0,000 mm 3,7 UV-I 480 W/m 17,6 C 22,3 C 11,3 km/h (2 Bft) 100,00 %
28.07.2016 14:14 22,3 C 75 % 1015,7 hPa 0,0 l/m 5,7 km/h (1 Bft) W-NW 285 2 min 0,000 mm 3,9 UV-I 501 W/m 17,6 C 22,3 C 6,4 km/h (2 Bft) 100,00 %
28.07.2016 14:16 22,2 C 76 % 1015,6 hPa 0,0 l/m 3,7 km/h (1 Bft) W-SW 257 2 min 0,000 mm 4,2 UV-I 556 W/m 17,8 C 22,2 C 8,0 km/h (2 Bft) 100,00 %
28.07.2016 14:18 22,3 C 75 % 1015,6 hPa 0,0 l/m 4,8 km/h (1 Bft) W-NW 284 2 min 0,000 mm 4,3 UV-I 570 W/m 17,6 C 22,3 C 9,7 km/h (2 Bft) 97,87 %
28.07.2016 14:20 22,4 C 78 % 1015,5 hPa 0,0 l/m 3,6 km/h (1 Bft) W 267 2 min 0,000 mm 4,6 UV-I 608 W/m 18,4 C 22,4 C 8,0 km/h (2 Bft) 98,00 %
28.07.2016 14:22 22,6 C 79 % 1015,5 hPa 0,0 l/m 6,1 km/h (2 Bft) W 263 2 min 0,000 mm 5,2 UV-I 698 W/m 18,8 C 22,6 C 9,7 km/h (2 Bft) 100,00 %
28.07.2016 14:24 22,7 C 78 % 1015,5 hPa 0,0 l/m 2,2 km/h (1 Bft) W-NW 299 2 min 0,000 mm 5,4 UV-I 740 W/m 18,7 C 22,7 C 6,4 km/h (2 Bft) 100,00 %
28.07.2016 14:26 23,0 C 77 % 1015,5 hPa 0,0 l/m 2,5 km/h (1 Bft) NW 311 2 min 0,000 mm 5,4 UV-I 745 W/m 18,7 C 23,0 C 4,8 km/h (1 Bft) 96,23 %
28.07.2016 14:28 23,3 C 78 % 1015,5 hPa 0,0 l/m 3,5 km/h (1 Bft) W-SW 255 2 min 0,000 mm 6,2 UV-I 807 W/m 19,2 C 23,3 C 6,4 km/h (2 Bft) 93,62 %
28.07.2016 14:30 23,3 C 72 % 1015,4 hPa 0,0 l/m 4,1 km/h (1 Bft) N-NW 328 2 min 0,000 mm 5,9 UV-I 824 W/m 18,0 C 23,3 C 8,0 km/h (2 Bft) 97,87 %
28.07.2016 14:32 23,5 C 76 % 1015,4 hPa 0,0 l/m 2,4 km/h (1 Bft) NW 309 2 min 0,000 mm 5,8 UV-I 1051 W/m 19,0 C 23,5 C 6,4 km/h (2 Bft) 97,87 %
28.07.2016 14:34 23,6 C 71 % 1015,4 hPa 0,0 l/m 1,7 km/h (1 Bft) N 10 2 min 0,000 mm 5,0 UV-I 802 W/m 18,0 C 23,6 C 3,2 km/h (1 Bft) 97,22 %
28.07.2016 14:36 23,5 C 73 % 1015,3 hPa 0,0 l/m 4,5 km/h (1 Bft) W 261 2 min 0,000 mm 4,5 UV-I 631 W/m 18,4 C 23,5 C 8,0 km/h (2 Bft) 98,28 %
28.07.2016 14:38 23,2 C 72 % 1015,3 hPa 0,0 l/m 6,4 km/h (2 Bft) W-SW 257 2 min 0,000 mm 4,6 UV-I 594 W/m 17,9 C 23,2 C 11,3 km/h (2 Bft) 97,78 %
28.07.2016 14:40 23,1 C 75 % 1015,2 hPa 0,0 l/m 8,9 km/h (2 Bft) W-SW 246 2 min 0,000 mm 5,6 UV-I 787 W/m 18,4 C 22,4 C 14,5 km/h (3 Bft) 92,68 %
28.07.2016 14:42 23,0 C 74 % 1015,2 hPa 0,0 l/m 4,5 km/h (1 Bft) W-NW 298 2 min 0,000 mm 5,1 UV-I 835 W/m 18,1 C 23,0 C 8,0 km/h (2 Bft) 98,11 %
28.07.2016 14:44 23,0 C 76 % 1015,2 hPa 0,0 l/m 3,9 km/h (1 Bft) W 273 2 min 0,000 mm 3,9 UV-I 615 W/m 18,5 C 23,0 C 6,4 km/h (2 Bft) 95,74 %
28.07.2016 14:46 23,0 C 73 % 1015,2 hPa 0,0 l/m 6,1 km/h (2 Bft) W-SW 248 0 min 0,000 mm 3,7 UV-I 445 W/m 17,9 C 23,0 C 11,3 km/h (2 Bft) 97,37 %
28.07.2016 14:48 22,9 C 74 % 1015,1 hPa 0,0 l/m 3,1 km/h (1 Bft) NW 311 2 min 0,000 mm 3,9 UV-I 445 W/m 18,0 C 22,9 C 6,4 km/h (2 Bft) 96,23 %
28.07.2016 14:50 22,8 C 73 % 1015,1 hPa 0,0 l/m 3,1 km/h (1 Bft) NW 325 0 min 0,000 mm 3,6 UV-I 421 W/m 17,7 C 22,8 C 6,4 km/h (2 Bft) 98,00 %
28.07.2016 14:52 22,8 C 72 % 1015,1 hPa 0,0 l/m 5,6 km/h (1 Bft) W 275 0 min 0,000 mm 3,5 UV-I 404 W/m 17,5 C 22,8 C 9,7 km/h (2 Bft) 97,37 %
28.07.2016 14:54 22,6 C 71 % 1015,1 hPa 0,0 l/m 1,9 km/h (1 Bft) W 274 0 min 0,000 mm 3,4 UV-I 400 W/m 17,1 C 22,6 C 4,8 km/h (1 Bft) 98,21 %
28.07.2016 14:56 22,6 C 70 % 1015,1 hPa 0,0 l/m 3,6 km/h (1 Bft) W-NW 282 0 min 0,000 mm 3,4 UV-I 401 W/m 16,8 C 22,6 C 6,4 km/h (2 Bft) 97,87 %
28.07.2016 14:58 22,5 C 70 % 1015,0 hPa 0,0 l/m 6,8 km/h (2 Bft) W-SW 249 0 min 0,000 mm 3,4 UV-I 407 W/m 16,7 C 22,4 C 12,9 km/h (3 Bft) 97,87 %
28.07.2016 15:00 22,4 C 71 % 1015,0 hPa 0,0 l/m 7,5 km/h (2 Bft) S-SW 202 0 min 0,381 mm 3,4 UV-I 420 W/m 16,9 C 22,0 C 11,3 km/h (2 Bft) 97,37 %
28.07.2016 15:02 22,4 C 72 % 1015,0 hPa 0,0 l/m 7,1 km/h (2 Bft) SW 224 2 min 0,000 mm 3,8 UV-I 483 W/m 17,1 C 22,2 C 9,7 km/h (2 Bft) 100,00 %
28.07.2016 15:04 22,4 C 71 % 1015,0 hPa 0,0 l/m 3,9 km/h (1 Bft) W-SW 258 2 min 0,000 mm 4,1 UV-I 542 W/m 16,9 C 22,4 C 6,4 km/h (2 Bft) 97,37 %
28.07.2016 15:06 22,6 C 74 % 1015,0 hPa 0,0 l/m 3,2 km/h (1 Bft) W-SW 249 2 min 0,000 mm 4,2 UV-I 571 W/m 17,7 C 22,6 C 6,4 km/h (2 Bft) 100,00 %
28.07.2016 15:08 22,7 C 72 % 1015,0 hPa 0,0 l/m 4,4 km/h (1 Bft) W-SW 244 2 min 0,000 mm 4,3 UV-I 538 W/m 17,4 C 22,7 C 8,0 km/h (2 Bft) 100,00 %
28.07.2016 15:10 22,7 C 71 % 1014,9 hPa 0,0 l/m 1,6 km/h (1 Bft) W 262 2 min 0,000 mm 3,6 UV-I 442 W/m 17,2 C 22,7 C 4,8 km/h (1 Bft) 100,00 %
28.07.2016 15:12 22,8 C 71 % 1014,9 hPa 0,0 l/m 3,0 km/h (1 Bft) W-NW 290 0 min 0,000 mm 3,5 UV-I 414 W/m 17,3 C 22,8 C 4,8 km/h (1 Bft) 100,00 %
28.07.2016 15:14 22,9 C 70 % 1014,9 hPa 0,0 l/m 3,8 km/h (1 Bft) S-SW 204 2 min 0,000 mm 3,9 UV-I 492 W/m 17,1 C 22,9 C 6,4 km/h (2 Bft) 100,00 %
28.07.2016 15:16 22,9 C 66 % 1014,9 hPa 0,0 l/m 5,9 km/h (2 Bft) W-SW 240 2 min 0,000 mm 4,1 UV-I 547 W/m 16,2 C 22,9 C 8,0 km/h (2 Bft) 100,00 %
28.07.2016 15:18 22,9 C 62 % 1014,8 hPa 0,0 l/m 4,7 km/h (1 Bft) W 265 2 min 0,000 mm 4,9 UV-I 757 W/m 15,2 C 22,9 C 8,0 km/h (2 Bft) 97,87 %
28.07.2016 15:20 23,1 C 67 % 1014,8 hPa 0,0 l/m 3,2 km/h (1 Bft) W-NW 284 2 min 0,000 mm 4,9 UV-I 928 W/m 16,6 C 23,1 C 6,4 km/h (2 Bft) 100,00 %
28.07.2016 15:22 23,3 C 66 % 1014,7 hPa 0,0 l/m 3,9 km/h (1 Bft) W 268 2 min 0,000 mm 4,6 UV-I 892 W/m 16,6 C 23,3 C 6,4 km/h (2 Bft) 100,00 %
28.07.2016 15:24 23,3 C 65 % 1014,8 hPa 0,0 l/m 3,5 km/h (1 Bft) NW 311 2 min 0,000 mm 4,6 UV-I 756 W/m 16,3 C 23,3 C 9,7 km/h (2 Bft) 100,00 %
28.07.2016 15:26 23,6 C 66 % 1014,8 hPa 0,0 l/m 4,4 km/h (1 Bft) SW 232 2 min 0,000 mm 5,1 UV-I 633 W/m 16,9 C 23,6 C 8,0 km/h (2 Bft) 97,37 %
28.07.2016 15:28 23,5 C 68 % 1014,8 hPa 0,0 l/m 2,2 km/h (1 Bft) W-SW 246 2 min 0,000 mm 5,1 UV-I 750 W/m 17,2 C 23,5 C 8,0 km/h (2 Bft) 98,00 %
28.07.2016 15:30 23,6 C 65 % 1014,7 hPa 0,0 l/m 0,6 km/h (0 Bft) W-SW 246 2 min 0,000 mm 5,0 UV-I 837 W/m 16,6 C 23,6 C 1,6 km/h (1 Bft) 100,00 %
28.07.2016 15:32 23,6 C 63 % 1014,6 hPa 0,0 l/m 1,8 km/h (1 Bft) W-SW 247 2 min 0,000 mm 4,9 UV-I 838 W/m 16,1 C 23,6 C 3,2 km/h (1 Bft) 97,56 %
28.07.2016 15:34 23,8 C 63 % 1014,6 hPa 0,0 l/m 3,8 km/h (1 Bft) W-NW 288 2 min 0,000 mm 4,8 UV-I 828 W/m 16,3 C 23,8 C 9,7 km/h (2 Bft) 100,00 %
28.07.2016 15:36 24,1 C 66 % 1014,6 hPa 0,0 l/m 3,1 km/h (1 Bft) SW 236 2 min 0,000 mm 4,7 UV-I 803 W/m 17,3 C 24,1 C 6,4 km/h (2 Bft) 100,00 %
28.07.2016 15:38 24,2 C 58 % 1014,6 hPa 0,0 l/m 3,5 km/h (1 Bft) S 174 2 min 0,000 mm 4,7 UV-I 789 W/m 15,4 C 24,2 C 8,0 km/h (2 Bft) 97,37 %
28.07.2016 15:40 24,1 C 58 % 1014,6 hPa 0,0 l/m 3,6 km/h (1 Bft) S-SO 150 2 min 0,000 mm 4,6 UV-I 771 W/m 15,3 C 24,1 C 6,4 km/h (2 Bft) 100,00 %
28.07.2016 15:42 24,1 C 61 % 1014,6 hPa 0,0 l/m 3,5 km/h (1 Bft) S-SW 194 2 min 0,000 mm 4,5 UV-I 758 W/m 16,1 C 24,1 C 6,4 km/h (2 Bft) 100,00 %
28.07.2016 15:44 24,1 C 58 % 1014,6 hPa 0,0 l/m 7,1 km/h (2 Bft) S-SW 210 2 min 0,000 mm 4,4 UV-I 747 W/m 15,3 C 23,9 C 11,3 km/h (2 Bft) 97,87 %
28.07.2016 15:46 24,1 C 56 % 1014,6 hPa 0,0 l/m 6,1 km/h (2 Bft) S-SW 198 2 min 0,000 mm 4,4 UV-I 744 W/m 14,8 C 24,1 C 9,7 km/h (2 Bft) 98,00 %
28.07.2016 15:48 24,0 C 58 % 1014,6 hPa 0,0 l/m 3,2 km/h (1 Bft) S 170 2 min 0,000 mm 4,3 UV-I 739 W/m 15,2 C 24,0 C 8,0 km/h (2 Bft) 100,00 %
28.07.2016 15:50 24,0 C 58 % 1014,5 hPa 0,0 l/m 5,0 km/h (1 Bft) S-SO 165 2 min 0,000 mm 4,2 UV-I 730 W/m 15,2 C 24,0 C 9,7 km/h (2 Bft) 100,00 %
28.07.2016 15:52 24,2 C 57 % 1014,5 hPa 0,0 l/m 4,3 km/h (1 Bft) S-SO 159 2 min 0,000 mm 4,2 UV-I 722 W/m 15,1 C 24,2 C 8,0 km/h (2 Bft) 100,00 %
28.07.2016 15:54 24,2 C 58 % 1014,5 hPa 0,0 l/m 3,6 km/h (1 Bft) W-SW 258 2 min 0,000 mm 4,1 UV-I 719 W/m 15,4 C 24,2 C 8,0 km/h (2 Bft) 100,00 %
28.07.2016 15:56 24,3 C 59 % 1014,5 hPa 0,0 l/m 5,4 km/h (1 Bft) S 191 2 min 0,000 mm 4,0 UV-I 715 W/m 15,8 C 24,3 C 9,7 km/h (2 Bft) 97,87 %
28.07.2016 15:58 24,4 C 59 % 1014,6 hPa 0,0 l/m 8,9 km/h (2 Bft) S 191 2 min 0,000 mm 4,0 UV-I 718 W/m 15,9 C 23,7 C 12,9 km/h (3 Bft) 100,00 %
28.07.2016 16:00 24,3 C 58 % 1014,5 hPa 0,0 l/m 7,9 km/h (2 Bft) S-SW 193 2 min 0,000 mm 4,0 UV-I 733 W/m 15,5 C 23,9 C 12,9 km/h (3 Bft) 100,00 %
28.07.2016 16:02 24,3 C 57 % 1014,5 hPa 0,0 l/m 5,6 km/h (1 Bft) S-SO 155 2 min 0,457 mm 4,0 UV-I 733 W/m 15,2 C 24,3 C 12,9 km/h (3 Bft) 98,21 %
28.07.2016 16:04 24,4 C 60 % 1014,5 hPa 0,0 l/m 3,4 km/h (1 Bft) W-SW 244 2 min 0,000 mm 4,0 UV-I 725 W/m 16,1 C 24,4 C 4,8 km/h (1 Bft) 100,00 %
28.07.2016 16:06 24,6 C 57 % 1014,5 hPa 0,0 l/m 4,7 km/h (1 Bft) W 265 2 min 0,000 mm 4,0 UV-I 747 W/m 15,5 C 24,6 C 9,7 km/h (2 Bft) 100,00 %
28.07.2016 16:08 24,4 C 54 % 1014,5 hPa 0,0 l/m 4,8 km/h (1 Bft) SW 220 2 min 0,000 mm 3,9 UV-I 748 W/m 14,5 C 24,4 C 8,0 km/h (2 Bft) 100,00 %
28.07.2016 16:10 24,3 C 57 % 1014,4 hPa 0,0 l/m 1,8 km/h (1 Bft) S-SW 199 2 min 0,000 mm 3,8 UV-I 722 W/m 15,2 C 24,3 C 4,8 km/h (1 Bft) 100,00 %
28.07.2016 16:12 24,6 C 61 % 1014,4 hPa 0,0 l/m 1,9 km/h (1 Bft) W 281 2 min 0,000 mm 3,7 UV-I 710 W/m 16,6 C 24,6 C 4,8 km/h (1 Bft) 97,87 %
28.07.2016 16:14 24,6 C 60 % 1014,4 hPa 0,0 l/m 2,3 km/h (1 Bft) W-SW 250 2 min 0,000 mm 3,7 UV-I 713 W/m 16,3 C 24,6 C 8,0 km/h (2 Bft) 100,00 %
28.07.2016 16:16 24,7 C 58 % 1014,4 hPa 0,0 l/m 9,7 km/h (2 Bft) W 271 2 min 0,000 mm 3,7 UV-I 707 W/m 15,9 C 23,9 C 14,5 km/h (3 Bft) 100,00 %
28.07.2016 16:18 24,8 C 54 % 1014,4 hPa 0,0 l/m 5,0 km/h (1 Bft) S-SW 213 2 min 0,000 mm 3,5 UV-I 695 W/m 14,8 C 24,8 C 11,3 km/h (2 Bft) 100,00 %
28.07.2016 16:20 24,8 C 56 % 1014,4 hPa 0,0 l/m 6,7 km/h (2 Bft) W-NW 295 2 min 0,000 mm 3,5 UV-I 707 W/m 15,4 C 24,7 C 12,9 km/h (3 Bft) 98,00 %
28.07.2016 16:22 24,9 C 56 % 1014,4 hPa 0,0 l/m 3,3 km/h (1 Bft) W-NW 296 2 min 0,000 mm 3,5 UV-I 725 W/m 15,5 C 24,9 C 4,8 km/h (1 Bft) 97,37 %
28.07.2016 16:24 25,0 C 57 % 1014,3 hPa 0,0 l/m 2,2 km/h (1 Bft) W 274 2 min 0,000 mm 3,5 UV-I 754 W/m 15,9 C 25,0 C 4,8 km/h (1 Bft) 96,23 %
28.07.2016 16:26 25,1 C 56 % 1014,4 hPa 0,0 l/m 7,0 km/h (2 Bft) W-SW 254 2 min 0,000 mm 3,5 UV-I 799 W/m 15,7 C 25,0 C 11,3 km/h (2 Bft) 98,00 %
28.07.2016 16:28 25,1 C 55 % 1014,4 hPa 0,0 l/m 7,1 km/h (2 Bft) S-SO 167 2 min 0,000 mm 3,4 UV-I 831 W/m 15,4 C 24,9 C 12,9 km/h (3 Bft) 97,37 %
28.07.2016 16:30 24,9 C 50 % 1014,3 hPa 0,0 l/m 4,8 km/h (1 Bft) S-SW 205 2 min 0,000 mm 3,4 UV-I 859 W/m 13,7 C 24,9 C 9,7 km/h (2 Bft) 96,23 %
28.07.2016 16:32 25,0 C 53 % 1014,4 hPa 0,0 l/m 6,3 km/h (2 Bft) S-SW 203 2 min 0,000 mm 2,8 UV-I 833 W/m 14,7 C 25,0 C 9,7 km/h (2 Bft) 100,00 %
28.07.2016 16:34 24,8 C 55 % 1014,4 hPa 0,0 l/m 3,0 km/h (1 Bft) SW 216 2 min 0,000 mm 2,2 UV-I 383 W/m 15,1 C 24,8 C 8,0 km/h (2 Bft) 95,45 %
28.07.2016 16:36 24,7 C 58 % 1014,4 hPa 0,0 l/m 6,5 km/h (2 Bft) W-SW 242 0 min 0,000 mm 2,0 UV-I 336 W/m 15,9 C 24,7 C 11,3 km/h (2 Bft) 98,31 %
28.07.2016 16:38 24,6 C 58 % 1014,4 hPa 0,0 l/m 5,5 km/h (1 Bft) W 262 0 min 0,000 mm 1,8 UV-I 315 W/m 15,8 C 24,6 C 9,7 km/h (2 Bft) 97,14 %
28.07.2016 16:40 24,4 C 55 % 1014,4 hPa 0,0 l/m 4,0 km/h (1 Bft) S 190 0 min 0,000 mm 1,8 UV-I 303 W/m 14,8 C 24,4 C 6,4 km/h (2 Bft) 98,11 %
28.07.2016 16:42 24,3 C 55 % 1014,4 hPa 0,0 l/m 4,1 km/h (1 Bft) SW 226 0 min 0,000 mm 1,7 UV-I 314 W/m 14,7 C 24,3 C 6,4 km/h (2 Bft) 97,87 %
28.07.2016 16:44 24,3 C 58 % 1014,4 hPa 0,0 l/m 2,7 km/h (1 Bft) SW 214 0 min 0,000 mm 1,7 UV-I 322 W/m 15,5 C 24,3 C 4,8 km/h (1 Bft) 95,74 %
28.07.2016 16:46 24,2 C 56 % 1014,4 hPa 0,0 l/m 1,4 km/h (1 Bft) SW 214 0 min 0,000 mm 1,7 UV-I 322 W/m 14,9 C 24,2 C 4,8 km/h (1 Bft) 98,00 %
28.07.2016 16:48 24,2 C 60 % 1014,4 hPa 0,0 l/m 3,8 km/h (1 Bft) W 261 0 min 0,000 mm 1,7 UV-I 327 W/m 15,9 C 24,2 C 8,0 km/h (2 Bft) 97,56 %
28.07.2016 16:50 24,2 C 55 % 1014,3 hPa 0,0 l/m 2,1 km/h (1 Bft) W 270 2 min 0,000 mm 1,8 UV-I 358 W/m 14,6 C 24,2 C 4,8 km/h (1 Bft) 96,00 %
28.07.2016 16:52 24,2 C 57 % 1014,3 hPa 0,0 l/m 1,4 km/h (1 Bft) W 270 2 min 0,000 mm 1,9 UV-I 371 W/m 15,1 C 24,2 C 3,2 km/h (1 Bft) 98,00 %
28.07.2016 16:54 24,3 C 60 % 1014,3 hPa 0,0 l/m 2,6 km/h (1 Bft) W 270 2 min 0,000 mm 1,9 UV-I 381 W/m 16,0 C 24,3 C 4,8 km/h (1 Bft) 100,00 %
28.07.2016 16:56 24,4 C 58 % 1014,4 hPa 0,0 l/m 4,8 km/h (1 Bft) W-SW 248 2 min 0,000 mm 1,7 UV-I 388 W/m 15,6 C 24,4 C 8,0 km/h (2 Bft) 100,00 %
28.07.2016 16:58 24,6 C 51 % 1014,3 hPa 0,0 l/m 2,6 km/h (1 Bft) W-NW 300 2 min 0,000 mm 1,9 UV-I 371 W/m 13,8 C 24,6 C 4,8 km/h (1 Bft) 100,00 %
28.07.2016 17:00 24,6 C 55 % 1014,4 hPa 0,0 l/m 3,8 km/h (1 Bft) NW 316 2 min 0,381 mm 1,9 UV-I 368 W/m 14,9 C 24,6 C 6,4 km/h (2 Bft) 98,21 %
28.07.2016 17:02 24,6 C 53 % 1014,3 hPa 0,0 l/m 1,7 km/h (1 Bft) NW 316 2 min 0,000 mm 2,0 UV-I 431 W/m 14,4 C 24,6 C 3,2 km/h (1 Bft) 100,00 %
28.07.2016 17:04 24,5 C 56 % 1014,3 hPa 0,0 l/m 1,4 km/h (1 Bft) W-SW 246 2 min 0,000 mm 1,9 UV-I 396 W/m 15,1 C 24,5 C 4,8 km/h (1 Bft) 100,00 %
28.07.2016 17:06 24,4 C 55 % 1014,3 hPa 0,0 l/m 2,1 km/h (1 Bft) W-SW 256 2 min 0,000 mm 1,9 UV-I 414 W/m 14,8 C 24,4 C 6,4 km/h (2 Bft) 100,00 %
28.07.2016 17:08 24,5 C 58 % 1014,3 hPa 0,0 l/m 4,5 km/h (1 Bft) W-SW 258 2 min 0,000 mm 2,0 UV-I 419 W/m 15,7 C 24,5 C 9,7 km/h (2 Bft) 100,00 %
28.07.2016 17:10 24,6 C 58 % 1014,3 hPa 0,0 l/m 3,0 km/h (1 Bft) W 264 2 min 0,000 mm 1,9 UV-I 389 W/m 15,8 C 24,6 C 6,4 km/h (2 Bft) 100,00 %
28.07.2016 17:12 24,8 C 61 % 1014,2 hPa 0,0 l/m 3,2 km/h (1 Bft) W 271 2 min 0,000 mm 2,3 UV-I 632 W/m 16,8 C 24,8 C 4,8 km/h (1 Bft) 100,00 %
28.07.2016 17:14 25,0 C 56 % 1014,2 hPa 0,0 l/m 2,6 km/h (1 Bft) N-NW 329 2 min 0,000 mm 2,2 UV-I 699 W/m 15,6 C 25,0 C 6,4 km/h (2 Bft) 100,00 %
28.07.2016 17:16 25,2 C 53 % 1014,1 hPa 0,0 l/m 3,0 km/h (1 Bft) N-NO 19 2 min 0,000 mm 2,3 UV-I 706 W/m 14,9 C 25,2 C 6,4 km/h (2 Bft) 100,00 %
28.07.2016 17:18 25,3 C 53 % 1014,1 hPa 0,0 l/m 2,9 km/h (1 Bft) W-NW 300 2 min 0,000 mm 2,0 UV-I 657 W/m 15,0 C 25,3 C 6,4 km/h (2 Bft) 100,00 %
28.07.2016 17:20 25,2 C 52 % 1014,1 hPa 0,0 l/m 2,2 km/h (1 Bft) W 273 2 min 0,000 mm 1,6 UV-I 518 W/m 14,6 C 25,2 C 4,8 km/h (1 Bft) 100,00 %
28.07.2016 17:22 24,9 C 52 % 1014,1 hPa 0,0 l/m 2,5 km/h (1 Bft) W 275 2 min 0,000 mm 1,6 UV-I 334 W/m 14,4 C 24,9 C 6,4 km/h (2 Bft) 100,00 %
28.07.2016 17:24 24,8 C 54 % 1014,1 hPa 0,0 l/m 1,4 km/h (1 Bft) W 275 2 min 0,000 mm 1,6 UV-I 381 W/m 14,8 C 24,8 C 3,2 km/h (1 Bft) 97,87 %
28.07.2016 17:26 24,8 C 54 % 1014,1 hPa 0,0 l/m 5,0 km/h (1 Bft) S-SW 213 2 min 0,000 mm 1,5 UV-I 325 W/m 14,8 C 24,8 C 8,0 km/h (2 Bft) 97,73 %
28.07.2016 17:28 24,7 C 53 % 1014,1 hPa 0,0 l/m 4,4 km/h (1 Bft) W-SW 257 2 min 0,000 mm 1,7 UV-I 472 W/m 14,5 C 24,7 C 6,4 km/h (2 Bft) 100,00 %
28.07.2016 17:30 24,7 C 52 % 1014,1 hPa 0,0 l/m 2,9 km/h (1 Bft) W-SW 257 2 min 0,000 mm 1,7 UV-I 458 W/m 14,2 C 24,7 C 4,8 km/h (1 Bft) 97,14 %
28.07.2016 17:32 24,8 C 54 % 1014,1 hPa 0,0 l/m 2,7 km/h (1 Bft) W 260 2 min 0,000 mm 1,6 UV-I 583 W/m 14,8 C 24,8 C 6,4 km/h (2 Bft) 100,00 %
28.07.2016 17:34 24,9 C 52 % 1014,0 hPa 0,0 l/m 3,3 km/h (1 Bft) SW 236 2 min 0,000 mm 1,5 UV-I 418 W/m 14,4 C 24,9 C 6,4 km/h (2 Bft) 100,00 %
28.07.2016 17:36 24,8 C 54 % 1014,0 hPa 0,0 l/m 3,8 km/h (1 Bft) W-SW 256 2 min 0,000 mm 1,4 UV-I 323 W/m 14,8 C 24,8 C 6,4 km/h (2 Bft) 100,00 %
28.07.2016 17:38 24,7 C 50 % 1014,0 hPa 0,0 l/m 3,9 km/h (1 Bft) W 261 2 min 0,000 mm 1,3 UV-I 293 W/m 13,6 C 24,7 C 6,4 km/h (2 Bft) 100,00 %
28.07.2016 17:40 24,6 C 52 % 1014,0 hPa 0,0 l/m 3,2 km/h (1 Bft) W 270 2 min 0,000 mm 1,3 UV-I 319 W/m 14,1 C 24,6 C 4,8 km/h (1 Bft) 100,00 %
28.07.2016 17:42 24,6 C 52 % 1014,0 hPa 0,0 l/m 1,5 km/h (1 Bft) W 270 2 min 0,000 mm 1,3 UV-I 283 W/m 14,1 C 24,6 C 3,2 km/h (1 Bft) 100,00 %
28.07.2016 17:44 24,4 C 54 % 1013,9 hPa 0,0 l/m 0,4 km/h (0 Bft) W 270 2 min 0,000 mm 1,2 UV-I 270 W/m 14,5 C 24,4 C 1,6 km/h (1 Bft) 100,00 %
28.07.2016 17:46 24,4 C 52 % 1014,0 hPa 0,0 l/m 1,0 km/h (0 Bft) W 270 2 min 0,000 mm 1,2 UV-I 280 W/m 13,9 C 24,4 C 1,6 km/h (1 Bft) 100,00 %
28.07.2016 17:48 24,6 C 54 % 1014,0 hPa 0,0 l/m 2,8 km/h (1 Bft) W-SW 253 2 min 0,000 mm 1,2 UV-I 280 W/m 14,7 C 24,6 C 8,0 km/h (2 Bft) 100,00 %
28.07.2016 17:50 24,6 C 55 % 1014,1 hPa 0,0 l/m 3,5 km/h (1 Bft) W-NW 284 2 min 0,000 mm 1,1 UV-I 257 W/m 14,9 C 24,6 C 6,4 km/h (2 Bft) 100,00 %
28.07.2016 17:52 24,5 C 55 % 1014,0 hPa 0,0 l/m 1,0 km/h (0 Bft) W-NW 284 0 min 0,000 mm 1,1 UV-I 244 W/m 14,9 C 24,5 C 3,2 km/h (1 Bft) 100,00 %
28.07.2016 17:54 24,4 C 58 % 1014,0 hPa 0,0 l/m 2,2 km/h (1 Bft) W-SW 258 0 min 0,000 mm 1,1 UV-I 235 W/m 15,6 C 24,4 C 3,2 km/h (1 Bft) 100,00 %
28.07.2016 17:56 24,3 C 56 % 1014,0 hPa 0,0 l/m 4,9 km/h (1 Bft) W 268 0 min 0,000 mm 1,0 UV-I 232 W/m 14,9 C 24,3 C 9,7 km/h (2 Bft) 100,00 %
28.07.2016 17:58 24,3 C 58 % 1014,1 hPa 0,0 l/m 4,0 km/h (1 Bft) W 264 0 min 0,000 mm 1,0 UV-I 232 W/m 15,5 C 24,3 C 6,4 km/h (2 Bft) 100,00 %
28.07.2016 18:00 24,3 C 57 % 1014,1 hPa 0,0 l/m 5,0 km/h (1 Bft) W 261 0 min 0,254 mm 1,0 UV-I 220 W/m 15,2 C 24,3 C 8,0 km/h (2 Bft) 100,00 %
28.07.2016 18:02 24,3 C 56 % 1014,1 hPa 0,0 l/m 3,0 km/h (1 Bft) W 267 0 min 0,000 mm 0,9 UV-I 202 W/m 14,9 C 24,3 C 4,8 km/h (1 Bft) 100,00 %
28.07.2016 18:04 24,3 C 60 % 1014,1 hPa 0,0 l/m 4,3 km/h (1 Bft) W 273 0 min 0,000 mm 0,9 UV-I 189 W/m 16,0 C 24,3 C 6,4 km/h (2 Bft) 100,00 %
28.07.2016 18:06 24,2 C 59 % 1014,1 hPa 0,0 l/m 4,9 km/h (1 Bft) W 261 0 min 0,000 mm 0,8 UV-I 174 W/m 15,7 C 24,2 C 9,7 km/h (2 Bft) 100,00 %
28.07.2016 18:08 24,2 C 59 % 1014,1 hPa 0,0 l/m 2,8 km/h (1 Bft) W 261 0 min 0,000 mm 0,8 UV-I 181 W/m 15,7 C 24,2 C 4,8 km/h (1 Bft) 100,00 %
28.07.2016 18:10 24,1 C 59 % 1014,1 hPa 0,0 l/m 3,5 km/h (1 Bft) SW 231 2 min 0,000 mm 0,8 UV-I 254 W/m 15,6 C 24,1 C 6,4 km/h (2 Bft) 97,87 %
28.07.2016 18:12 24,1 C 58 % 1014,1 hPa 0,0 l/m 3,8 km/h (1 Bft) S-SW 199 2 min 0,000 mm 0,8 UV-I 309 W/m 15,3 C 24,1 C 6,4 km/h (2 Bft) 100,00 %
28.07.2016 18:14 24,2 C 59 % 1014,0 hPa 0,0 l/m 1,7 km/h (1 Bft) S-SW 199 2 min 0,000 mm 0,8 UV-I 253 W/m 15,7 C 24,2 C 3,2 km/h (1 Bft) 96,23 %
28.07.2016 18:16 24,3 C 59 % 1014,1 hPa 0,0 l/m 4,7 km/h (1 Bft) W-SW 254 2 min 0,000 mm 0,8 UV-I 296 W/m 15,8 C 24,3 C 6,4 km/h (2 Bft) 95,12 %
28.07.2016 18:18 24,4 C 60 % 1014,1 hPa 0,0 l/m 4,7 km/h (1 Bft) W 261 2 min 0,000 mm 0,8 UV-I 335 W/m 16,1 C 24,4 C 9,7 km/h (2 Bft) 95,45 %
28.07.2016 18:20 24,6 C 59 % 1014,1 hPa 0,0 l/m 2,4 km/h (1 Bft) W 273 2 min 0,000 mm 0,8 UV-I 409 W/m 16,0 C 24,6 C 4,8 km/h (1 Bft) 96,43 %
28.07.2016 18:22 24,6 C 58 % 1014,1 hPa 0,0 l/m 5,1 km/h (1 Bft) W-SW 250 2 min 0,000 mm 0,7 UV-I 251 W/m 15,8 C 24,6 C 8,0 km/h (2 Bft) 95,74 %
28.07.2016 18:24 24,4 C 57 % 1014,1 hPa 0,0 l/m 3,1 km/h (1 Bft) SW 234 2 min 0,000 mm 0,7 UV-I 254 W/m 15,3 C 24,4 C 6,4 km/h (2 Bft) 97,22 %
28.07.2016 18:26 24,4 C 56 % 1014,1 hPa 0,0 l/m 3,8 km/h (1 Bft) S-SW 203 2 min 0,000 mm 0,7 UV-I 299 W/m 15,0 C 24,4 C 4,8 km/h (1 Bft) 98,08 %
28.07.2016 18:28 24,3 C 57 % 1014,1 hPa 0,0 l/m 3,7 km/h (1 Bft) W 261 0 min 0,000 mm 0,6 UV-I 149 W/m 15,2 C 24,3 C 4,8 km/h (1 Bft) 98,00 %
28.07.2016 18:30 24,3 C 56 % 1014,1 hPa 0,0 l/m 3,7 km/h (1 Bft) W 271 0 min 0,000 mm 0,6 UV-I 141 W/m 14,9 C 24,3 C 6,4 km/h (2 Bft) 97,44 %
28.07.2016 18:32 24,3 C 57 % 1014,1 hPa 0,0 l/m 1,7 km/h (1 Bft) W 271 0 min 0,000 mm 0,5 UV-I 143 W/m 15,2 C 24,3 C 3,2 km/h (1 Bft) 96,23 %
28.07.2016 18:34 24,2 C 58 % 1014,1 hPa 0,0 l/m 4,2 km/h (1 Bft) SW 218 0 min 0,000 mm 0,5 UV-I 152 W/m 15,4 C 24,2 C 8,0 km/h (2 Bft) 97,56 %
28.07.2016 18:36 24,1 C 62 % 1014,1 hPa 0,0 l/m 3,7 km/h (1 Bft) W-SW 251 0 min 0,000 mm 0,5 UV-I 168 W/m 16,4 C 24,1 C 6,4 km/h (2 Bft) 97,87 %
28.07.2016 18:38 24,1 C 59 % 1014,1 hPa 0,0 l/m 3,5 km/h (1 Bft) W 261 0 min 0,000 mm 0,5 UV-I 176 W/m 15,6 C 24,1 C 4,8 km/h (1 Bft) 96,00 %
28.07.2016 18:40 24,2 C 60 % 1014,0 hPa 0,0 l/m 2,5 km/h (1 Bft) SW 232 2 min 0,000 mm 0,5 UV-I 181 W/m 15,9 C 24,2 C 4,8 km/h (1 Bft) 97,56 %
28.07.2016 18:42 24,2 C 59 % 1014,0 hPa 0,0 l/m 1,3 km/h (1 Bft) SW 232 2 min 0,000 mm 0,5 UV-I 186 W/m 15,7 C 24,2 C 4,8 km/h (1 Bft) 98,00 %
28.07.2016 18:44 24,2 C 60 % 1014,1 hPa 0,0 l/m 3,4 km/h (1 Bft) S-SW 198 0 min 0,000 mm 0,5 UV-I 168 W/m 15,9 C 24,2 C 4,8 km/h (1 Bft) 98,00 %
28.07.2016 18:46 24,1 C 60 % 1014,0 hPa 0,0 l/m 3,6 km/h (1 Bft) S-SW 198 0 min 0,000 mm 0,5 UV-I 149 W/m 15,8 C 24,1 C 4,8 km/h (1 Bft) 97,73 %
28.07.2016 18:48 24,1 C 61 % 1014,1 hPa 0,0 l/m 4,5 km/h (1 Bft) S-SW 197 0 min 0,000 mm 0,5 UV-I 133 W/m 16,1 C 24,1 C 6,4 km/h (2 Bft) 97,87 %
28.07.2016 18:50 24,0 C 62 % 1014,1 hPa 0,0 l/m 4,4 km/h (1 Bft) S-SW 195 0 min 0,000 mm 0,0 UV-I 121 W/m 16,3 C 24,0 C 6,4 km/h (2 Bft) 100,00 %
28.07.2016 18:52 23,9 C 62 % 1014,1 hPa 0,0 l/m 2,9 km/h (1 Bft) SW 215 0 min 0,000 mm 0,0 UV-I 113 W/m 16,2 C 23,9 C 4,8 km/h (1 Bft) 100,00 %
28.07.2016 18:54 23,9 C 62 % 1014,1 hPa 0,0 l/m 3,3 km/h (1 Bft) SW 231 0 min 0,000 mm 0,0 UV-I 104 W/m 16,2 C 23,9 C 4,8 km/h (1 Bft) 98,00 %
28.07.2016 18:56 23,8 C 60 % 1014,1 hPa 0,0 l/m 4,1 km/h (1 Bft) W-SW 242 0 min 0,000 mm 0,0 UV-I 94 W/m 15,6 C 23,8 C 8,0 km/h (2 Bft) 95,74 %
28.07.2016 18:58 23,8 C 61 % 1014,1 hPa 0,0 l/m 4,1 km/h (1 Bft) W 259 0 min 0,000 mm 0,0 UV-I 90 W/m 15,8 C 23,8 C 6,4 km/h (2 Bft) 100,00 %
28.07.2016 19:00 23,8 C 62 % 1014,1 hPa 0,0 l/m 2,7 km/h (1 Bft) W-SW 248 0 min 0,000 mm 0,0 UV-I 94 W/m 16,1 C 23,8 C 4,8 km/h (1 Bft) 100,00 %
28.07.2016 19:02 23,7 C 62 % 1014,1 hPa 0,0 l/m 2,4 km/h (1 Bft) SW 221 0 min 0,152 mm 0,0 UV-I 97 W/m 16,0 C 23,7 C 4,8 km/h (1 Bft) 100,00 %
28.07.2016 19:04 23,7 C 62 % 1014,1 hPa 0,0 l/m 2,6 km/h (1 Bft) SW 221 0 min 0,000 mm 0,0 UV-I 97 W/m 16,0 C 23,7 C 3,2 km/h (1 Bft) 100,00 %
28.07.2016 19:06 23,7 C 63 % 1014,1 hPa 0,0 l/m 3,3 km/h (1 Bft) SW 221 0 min 0,000 mm 0,0 UV-I 94 W/m 16,2 C 23,7 C 4,8 km/h (1 Bft) 100,00 %
28.07.2016 19:08 23,7 C 64 % 1014,1 hPa 0,0 l/m 2,9 km/h (1 Bft) SW 221 0 min 0,000 mm 0,0 UV-I 89 W/m 16,5 C 23,7 C 4,8 km/h (1 Bft) 100,00 %
28.07.2016 19:10 23,6 C 62 % 1014,1 hPa 0,0 l/m 1,5 km/h (1 Bft) SW 221 0 min 0,000 mm 0,0 UV-I 82 W/m 15,9 C 23,6 C 3,2 km/h (1 Bft) 100,00 %
28.07.2016 19:12 23,6 C 65 % 1014,1 hPa 0,0 l/m 1,2 km/h (1 Bft) SW 221 0 min 0,000 mm 0,0 UV-I 75 W/m 16,6 C 23,6 C 3,2 km/h (1 Bft) 100,00 %
28.07.2016 19:14 23,6 C 65 % 1014,1 hPa 0,0 l/m 1,9 km/h (1 Bft) SW 221 0 min 0,000 mm 0,0 UV-I 70 W/m 16,6 C 23,6 C 3,2 km/h (1 Bft) 100,00 %
28.07.2016 19:16 23,5 C 66 % 1014,1 hPa 0,0 l/m 1,7 km/h (1 Bft) SW 221 0 min 0,000 mm 0,0 UV-I 67 W/m 16,8 C 23,5 C 3,2 km/h (1 Bft) 100,00 %
28.07.2016 19:18 23,5 C 65 % 1014,1 hPa 0,0 l/m 1,3 km/h (1 Bft) SW 221 0 min 0,000 mm 0,0 UV-I 66 W/m 16,5 C 23,5 C 4,8 km/h (1 Bft) 96,00 %
28.07.2016 19:20 23,4 C 66 % 1014,1 hPa 0,0 l/m 1,6 km/h (1 Bft) SW 221 0 min 0,000 mm 0,0 UV-I 68 W/m 16,7 C 23,4 C 3,2 km/h (1 Bft) 100,00 %
28.07.2016 19:22 23,4 C 71 % 1014,1 hPa 0,0 l/m 0,8 km/h (0 Bft) SW 221 0 min 0,000 mm 0,0 UV-I 69 W/m 17,8 C 23,4 C 1,6 km/h (1 Bft) 95,92 %
28.07.2016 19:24 23,3 C 72 % 1014,1 hPa 0,0 l/m 0,6 km/h (0 Bft) SW 221 0 min 0,000 mm 0,0 UV-I 66 W/m 18,0 C 23,3 C 1,6 km/h (1 Bft) 100,00 %
28.07.2016 19:26 23,3 C 71 % 1014,0 hPa 0,0 l/m 0,4 km/h (0 Bft) SW 221 0 min 0,000 mm 0,0 UV-I 61 W/m 17,7 C 23,3 C 1,6 km/h (1 Bft) 98,00 %
28.07.2016 19:28 23,2 C 72 % 1014,1 hPa 0,0 l/m 0,3 km/h (0 Bft) SW 221 0 min 0,000 mm 0,0 UV-I 52 W/m 17,9 C 23,2 C 1,6 km/h (1 Bft) 100,00 %
28.07.2016 19:30 23,1 C 73 % 1014,1 hPa 0,0 l/m 1,4 km/h (1 Bft) SW 221 0 min 0,000 mm 0,0 UV-I 45 W/m 18,0 C 23,1 C 3,2 km/h (1 Bft) 100,00 %
28.07.2016 19:32 23,0 C 72 % 1014,1 hPa 0,0 l/m 0,8 km/h (0 Bft) SW 221 0 min 0,000 mm 0,0 UV-I 39 W/m 17,7 C 23,0 C 1,6 km/h (1 Bft) 100,00 %
28.07.2016 19:34 22,9 C 72 % 1014,1 hPa 0,0 l/m 1,6 km/h (1 Bft) SW 221 0 min 0,000 mm 0,0 UV-I 32 W/m 17,6 C 22,9 C 3,2 km/h (1 Bft) 100,00 %
28.07.2016 19:36 22,9 C 71 % 1014,1 hPa 0,0 l/m 2,0 km/h (1 Bft) SW 221 0 min 0,000 mm 0,0 UV-I 25 W/m 17,4 C 22,9 C 3,2 km/h (1 Bft) 100,00 %
28.07.2016 19:38 22,8 C 70 % 1014,1 hPa 0,0 l/m 1,9 km/h (1 Bft) SW 221 0 min 0,000 mm 0,0 UV-I 21 W/m 17,0 C 22,8 C 3,2 km/h (1 Bft) 100,00 %
28.07.2016 19:40 22,8 C 72 % 1014,1 hPa 0,0 l/m 2,0 km/h (1 Bft) SW 221 0 min 0,000 mm 0,0 UV-I 19 W/m 17,5 C 22,8 C 3,2 km/h (1 Bft) 100,00 %
28.07.2016 19:42 22,8 C 70 % 1014,1 hPa 0,0 l/m 2,4 km/h (1 Bft) SW 221 0 min 0,000 mm 0,0 UV-I 17 W/m 17,0 C 22,8 C 3,2 km/h (1 Bft) 100,00 %
28.07.2016 19:44 22,8 C 70 % 1014,2 hPa 0,0 l/m 2,0 km/h (1 Bft) SW 221 0 min 0,000 mm 0,0 UV-I 15 W/m 17,0 C 22,8 C 3,2 km/h (1 Bft) 100,00 %
28.07.2016 19:46 22,7 C 72 % 1014,2 hPa 0,0 l/m 1,2 km/h (1 Bft) SW 221 0 min 0,000 mm 0,0 UV-I 14 W/m 17,4 C 22,7 C 3,2 km/h (1 Bft) 100,00 %
28.07.2016 19:48 22,6 C 72 % 1014,2 hPa 0,0 l/m 1,8 km/h (1 Bft) SW 221 0 min 0,000 mm 0,0 UV-I 12 W/m 17,3 C 22,6 C 3,2 km/h (1 Bft) 100,00 %
28.07.2016 19:50 22,6 C 74 % 1014,2 hPa 0,0 l/m 1,8 km/h (1 Bft) SW 221 0 min 0,000 mm 0,0 UV-I 12 W/m 17,7 C 22,6 C 3,2 km/h (1 Bft) 100,00 %
28.07.2016 19:52 22,4 C 75 % 1014,3 hPa 0,0 l/m 0,0 km/h (0 Bft) SW 221 0 min 0,000 mm 0,0 UV-I 12 W/m 17,7 C 22,4 C 1,6 km/h (1 Bft) 98,04 %
28.07.2016 19:54 22,2 C 75 % 1014,3 hPa 0,0 l/m 1,2 km/h (1 Bft) N-NW 342 0 min 0,000 mm 0,0 UV-I 12 W/m 17,5 C 22,2 C 4,8 km/h (1 Bft) 100,00 %
28.07.2016 19:56 22,1 C 74 % 1014,3 hPa 0,0 l/m 3,6 km/h (1 Bft) N-NO 30 0 min 0,000 mm 0,0 UV-I 12 W/m 17,2 C 22,1 C 8,0 km/h (2 Bft) 100,00 %
28.07.2016 19:58 22,1 C 70 % 1014,3 hPa 0,0 l/m 3,7 km/h (1 Bft) N-NW 335 0 min 0,000 mm 0,0 UV-I 12 W/m 16,4 C 22,1 C 9,7 km/h (2 Bft) 100,00 %
28.07.2016 20:00 22,2 C 70 % 1014,4 hPa 0,0 l/m 4,4 km/h (1 Bft) N 351 0 min 0,051 mm 0,0 UV-I 12 W/m 16,5 C 22,2 C 8,0 km/h (2 Bft) 100,00 %
28.07.2016 20:02 22,2 C 71 % 1014,4 hPa 0,0 l/m 1,9 km/h (1 Bft) N-NW 342 0 min 0,000 mm 0,0 UV-I 15 W/m 16,7 C 22,2 C 4,8 km/h (1 Bft) 97,87 %
28.07.2016 20:04 22,2 C 71 % 1014,4 hPa 0,0 l/m 1,6 km/h (1 Bft) N-NO 24 0 min 0,000 mm 0,0 UV-I 16 W/m 16,7 C 22,2 C 4,8 km/h (1 Bft) 100,00 %
28.07.2016 20:06 22,1 C 71 % 1014,4 hPa 0,0 l/m 1,8 km/h (1 Bft) N-NW 336 0 min 0,000 mm 0,0 UV-I 17 W/m 16,6 C 22,1 C 3,2 km/h (1 Bft) 98,04 %
28.07.2016 20:08 22,1 C 71 % 1014,4 hPa 0,0 l/m 2,6 km/h (1 Bft) N-NW 344 0 min 0,000 mm 0,0 UV-I 18 W/m 16,6 C 22,1 C 4,8 km/h (1 Bft) 100,00 %
28.07.2016 20:10 22,1 C 72 % 1014,4 hPa 0,0 l/m 2,6 km/h (1 Bft) NW 317 0 min 0,000 mm 0,0 UV-I 18 W/m 16,8 C 22,1 C 8,0 km/h (2 Bft) 97,37 %
28.07.2016 20:12 22,0 C 71 % 1014,4 hPa 0,0 l/m 3,4 km/h (1 Bft) N-NW 348 0 min 0,000 mm 0,0 UV-I 20 W/m 16,5 C 22,0 C 8,0 km/h (2 Bft) 95,12 %
28.07.2016 20:14 22,0 C 70 % 1014,4 hPa 0,0 l/m 3,3 km/h (1 Bft) W-NW 300 0 min 0,000 mm 0,0 UV-I 23 W/m 16,3 C 22,0 C 8,0 km/h (2 Bft) 94,87 %
28.07.2016 20:16 21,9 C 71 % 1014,4 hPa 0,0 l/m 3,0 km/h (1 Bft) NW 305 0 min 0,000 mm 0,0 UV-I 25 W/m 16,4 C 21,9 C 8,0 km/h (2 Bft) 97,01 %
28.07.2016 20:18 21,9 C 71 % 1014,4 hPa 0,0 l/m 2,7 km/h (1 Bft) N 355 0 min 0,000 mm 0,0 UV-I 26 W/m 16,4 C 21,9 C 8,0 km/h (2 Bft) 95,74 %
28.07.2016 20:20 21,8 C 71 % 1014,4 hPa 0,0 l/m 3,3 km/h (1 Bft) N 9 2 min 0,000 mm 0,0 UV-I 28 W/m 16,3 C 21,8 C 4,8 km/h (1 Bft) 97,87 %
28.07.2016 20:22 21,8 C 71 % 1014,4 hPa 0,0 l/m 2,9 km/h (1 Bft) N-NO 22 2 min 0,000 mm 0,0 UV-I 26 W/m 16,3 C 21,8 C 6,4 km/h (2 Bft) 97,87 %
28.07.2016 20:24 21,7 C 72 % 1014,5 hPa 0,0 l/m 3,4 km/h (1 Bft) N-NO 21 2 min 0,000 mm 0,0 UV-I 25 W/m 16,4 C 21,7 C 6,4 km/h (2 Bft) 97,22 %
28.07.2016 20:26 21,6 C 72 % 1014,5 hPa 0,0 l/m 6,9 km/h (2 Bft) N-NO 23 2 min 0,000 mm 0,0 UV-I 21 W/m 16,3 C 21,4 C 9,7 km/h (2 Bft) 96,36 %
28.07.2016 20:28 21,5 C 72 % 1014,5 hPa 0,0 l/m 7,5 km/h (2 Bft) NO 40 2 min 0,000 mm 0,0 UV-I 19 W/m 16,2 C 21,1 C 12,9 km/h (3 Bft) 95,83 %
28.07.2016 20:30 21,4 C 72 % 1014,5 hPa 0,0 l/m 6,9 km/h (2 Bft) N-NO 33 2 min 0,000 mm 0,0 UV-I 16 W/m 16,1 C 21,2 C 11,3 km/h (2 Bft) 97,87 %
28.07.2016 20:32 21,4 C 73 % 1014,5 hPa 0,0 l/m 5,6 km/h (1 Bft) N-NO 33 2 min 0,000 mm 0,0 UV-I 13 W/m 16,4 C 21,4 C 8,0 km/h (2 Bft) 97,37 %
28.07.2016 20:34 21,3 C 73 % 1014,6 hPa 0,0 l/m 2,6 km/h (1 Bft) N-NO 23 0 min 0,000 mm 0,0 UV-I 11 W/m 16,3 C 21,3 C 6,4 km/h (2 Bft) 92,00 %
28.07.2016 20:36 21,2 C 74 % 1014,5 hPa 0,0 l/m 0,5 km/h (0 Bft) N-NO 18 0 min 0,000 mm 0,0 UV-I 8 W/m 16,4 C 21,2 C 1,6 km/h (1 Bft) 98,00 %
28.07.2016 20:38 21,1 C 75 % 1014,6 hPa 0,0 l/m 0,1 km/h (0 Bft) N-NO 18 0 min 0,000 mm 0,0 UV-I 5 W/m 16,5 C 21,1 C 1,6 km/h (1 Bft) 98,00 %
28.07.2016 20:40 21,0 C 75 % 1014,6 hPa 0,0 l/m 0,6 km/h (0 Bft) N-NO 18 0 min 0,000 mm 0,0 UV-I 5 W/m 16,4 C 21,0 C 3,2 km/h (1 Bft) 97,87 %
28.07.2016 20:42 20,9 C 74 % 1014,6 hPa 0,0 l/m 0,8 km/h (0 Bft) N-NO 18 0 min 0,000 mm 0,0 UV-I 0 W/m 16,1 C 20,9 C 3,2 km/h (1 Bft) 97,37 %
28.07.2016 20:44 20,8 C 74 % 1014,5 hPa 0,0 l/m 1,6 km/h (1 Bft) N-NO 18 0 min 0,000 mm 0,0 UV-I 0 W/m 16,0 C 20,8 C 4,8 km/h (1 Bft) 96,23 %
28.07.2016 20:46 20,8 C 75 % 1014,6 hPa 0,0 l/m 0,9 km/h (0 Bft) N-NO 18 0 min 0,000 mm 0,0 UV-I 0 W/m 16,2 C 20,8 C 3,2 km/h (1 Bft) 100,00 %
28.07.2016 20:48 20,8 C 75 % 1014,6 hPa 0,0 l/m 0,0 km/h (0 Bft) N-NO 18 0 min 0,000 mm 0,0 UV-I 0 W/m 16,2 C 20,8 C 0,0 km/h (0 Bft) 100,00 %
28.07.2016 20:50 20,8 C 74 % 1014,6 hPa 0,0 l/m 0,0 km/h (0 Bft) N-NO 18 0 min 0,000 mm 0,0 UV-I 0 W/m 16,0 C 20,8 C 0,0 km/h (0 Bft) 100,00 %
28.07.2016 20:54 20,8 C 76 % 1014,6 hPa 0,0 l/m 3,7 km/h (1 Bft) O 98 0 min 0,000 mm 0,0 UV-I 0 W/m 16,4 C 20,8 C 4,8 km/h (1 Bft) 97,96 %
28.07.2016 20:56 20,7 C 77 % 1014,6 hPa 0,0 l/m 3,0 km/h (1 Bft) O-SO 115 0 min 0,000 mm 0,0 UV-I 0 W/m 16,5 C 20,7 C 4,8 km/h (1 Bft) 100,00 %
28.07.2016 20:58 20,7 C 77 % 1014,7 hPa 0,0 l/m 1,0 km/h (0 Bft) O-SO 115 0 min 0,000 mm 0,0 UV-I 0 W/m 16,5 C 20,7 C 3,2 km/h (1 Bft) 100,00 %
28.07.2016 21:00 20,7 C 78 % 1014,7 hPa 0,0 l/m 0,0 km/h (0 Bft) O-SO 115 0 min 0,000 mm 0,0 UV-I 0 W/m 16,7 C 20,7 C 0,0 km/h (0 Bft) 100,00 %
28.07.2016 21:02 20,6 C 79 % 1014,7 hPa 0,0 l/m 0,0 km/h (0 Bft) O-SO 115 0 min 0,025 mm 0,0 UV-I 0 W/m 16,8 C 20,6 C 0,0 km/h (0 Bft) 97,37 %
28.07.2016 21:04 20,5 C 79 % 1014,7 hPa 0,0 l/m 0,0 km/h (0 Bft) O-SO 115 0 min 0,000 mm 0,0 UV-I 0 W/m 16,7 C 20,5 C 0,0 km/h (0 Bft) 100,00 %
28.07.2016 21:06 20,4 C 80 % 1014,7 hPa 0,0 l/m 0,0 km/h (0 Bft) O-SO 115 0 min 0,000 mm 0,0 UV-I 0 W/m 16,8 C 20,4 C 0,0 km/h (0 Bft) 100,00 %
28.07.2016 21:08 20,3 C 79 % 1014,7 hPa 0,0 l/m 0,0 km/h (0 Bft) O-SO 115 0 min 0,000 mm 0,0 UV-I 0 W/m 16,5 C 20,3 C 0,0 km/h (0 Bft) 98,11 %
28.07.2016 21:10 20,3 C 79 % 1014,7 hPa 0,0 l/m 0,0 km/h (0 Bft) O-SO 115 0 min 0,000 mm 0,0 UV-I 0 W/m 16,5 C 20,3 C 0,0 km/h (0 Bft) 97,87 %
28.07.2016 21:12 20,3 C 81 % 1014,7 hPa 0,0 l/m 0,4 km/h (0 Bft) O-SO 115 0 min 0,000 mm 0,0 UV-I 0 W/m 16,9 C 20,3 C 3,2 km/h (1 Bft) 100,00 %
28.07.2016 21:14 20,3 C 81 % 1014,7 hPa 0,0 l/m 2,2 km/h (1 Bft) O-SO 115 0 min 0,000 mm 0,0 UV-I 0 W/m 16,9 C 20,3 C 3,2 km/h (1 Bft) 97,87 %
28.07.2016 21:16 20,2 C 81 % 1014,7 hPa 0,0 l/m 1,8 km/h (1 Bft) O-SO 115 0 min 0,000 mm 0,0 UV-I 0 W/m 16,8 C 20,2 C 3,2 km/h (1 Bft) 95,92 %
28.07.2016 21:18 20,2 C 81 % 1014,7 hPa 0,0 l/m 1,6 km/h (1 Bft) O-SO 115 0 min 0,000 mm 0,0 UV-I 0 W/m 16,8 C 20,2 C 3,2 km/h (1 Bft) 100,00 %
28.07.2016 21:20 20,2 C 80 % 1014,8 hPa 0,0 l/m 0,7 km/h (0 Bft) O-SO 115 0 min 0,000 mm 0,0 UV-I 0 W/m 16,6 C 20,2 C 1,6 km/h (1 Bft) 100,00 %
28.07.2016 21:22 20,2 C 80 % 1014,8 hPa 0,0 l/m 0,2 km/h (0 Bft) O-SO 115 0 min 0,000 mm 0,0 UV-I 0 W/m 16,6 C 20,2 C 1,6 km/h (1 Bft) 100,00 %
28.07.2016 21:24 20,2 C 81 % 1014,8 hPa 0,0 l/m 0,0 km/h (0 Bft) O-SO 115 0 min 0,000 mm 0,0 UV-I 0 W/m 16,8 C 20,2 C 0,0 km/h (0 Bft) 100,00 %
28.07.2016 21:26 20,2 C 83 % 1014,7 hPa 0,0 l/m 0,0 km/h (0 Bft) O-SO 115 0 min 0,000 mm 0,0 UV-I 0 W/m 17,2 C 20,2 C 0,0 km/h (0 Bft) 100,00 %
28.07.2016 21:28 20,2 C 83 % 1014,7 hPa 0,0 l/m 0,0 km/h (0 Bft) O-SO 115 0 min 0,000 mm 0,0 UV-I 0 W/m 17,2 C 20,2 C 0,0 km/h (0 Bft) 100,00 %
28.07.2016 21:30 20,2 C 83 % 1014,7 hPa 0,0 l/m 0,0 km/h (0 Bft) O-SO 115 0 min 0,000 mm 0,0 UV-I 0 W/m 17,2 C 20,2 C 0,0 km/h (0 Bft) 100,00 %
28.07.2016 21:32 20,2 C 82 % 1014,7 hPa 0,0 l/m 0,0 km/h (0 Bft) O-SO 115 0 min 0,000 mm 0,0 UV-I 0 W/m 17,0 C 20,2 C 0,0 km/h (0 Bft) 97,14 %
28.07.2016 21:34 20,1 C 82 % 1014,8 hPa 0,0 l/m 0,0 km/h (0 Bft) O-SO 115 0 min 0,000 mm 0,0 UV-I 0 W/m 16,9 C 20,1 C 0,0 km/h (0 Bft) 100,00 %
28.07.2016 21:36 20,0 C 83 % 1014,7 hPa 0,0 l/m 0,0 km/h (0 Bft) O-SO 115 0 min 0,000 mm 0,0 UV-I 0 W/m 17,0 C 20,0 C 0,0 km/h (0 Bft) 100,00 %
28.07.2016 21:38 19,9 C 84 % 1014,7 hPa 0,0 l/m 0,0 km/h (0 Bft) O-SO 115 0 min 0,000 mm 0,0 UV-I 0 W/m 17,1 C 19,9 C 0,0 km/h (0 Bft) 97,87 %
28.07.2016 21:40 19,8 C 85 % 1014,7 hPa 0,0 l/m 0,0 km/h (0 Bft) O-SO 115 0 min 0,000 mm 0,0 UV-I 0 W/m 17,2 C 19,8 C 0,0 km/h (0 Bft) 100,00 %
28.07.2016 21:42 19,7 C 85 % 1014,7 hPa 0,0 l/m 0,0 km/h (0 Bft) O-SO 115 0 min 0,000 mm 0,0 UV-I 0 W/m 17,1 C 19,7 C 0,0 km/h (0 Bft) 100,00 %
28.07.2016 21:44 19,7 C 85 % 1014,7 hPa 0,0 l/m 0,0 km/h (0 Bft) O-SO 115 0 min 0,000 mm 0,0 UV-I 0 W/m 17,1 C 19,7 C 0,0 km/h (0 Bft) 98,00 %
28.07.2016 21:46 19,7 C 84 % 1014,7 hPa 0,0 l/m 0,0 km/h (0 Bft) O-SO 115 0 min 0,000 mm 0,0 UV-I 0 W/m 16,9 C 19,7 C 0,0 km/h (0 Bft) 100,00 %
28.07.2016 21:48 19,7 C 84 % 1014,7 hPa 0,0 l/m 2,1 km/h (1 Bft) O-SO 115 0 min 0,000 mm 0,0 UV-I 0 W/m 16,9 C 19,7 C 4,8 km/h (1 Bft) 100,00 %
28.07.2016 21:50 19,7 C 85 % 1014,7 hPa 0,0 l/m 4,0 km/h (1 Bft) O-SO 115 0 min 0,000 mm 0,0 UV-I 0 W/m 17,1 C 19,7 C 4,8 km/h (1 Bft) 97,96 %
28.07.2016 21:52 19,7 C 84 % 1014,7 hPa 0,0 l/m 4,1 km/h (1 Bft) S-SW 196 0 min 0,000 mm 0,0 UV-I 0 W/m 16,9 C 19,7 C 6,4 km/h (2 Bft) 100,00 %
28.07.2016 21:54 19,7 C 84 % 1014,7 hPa 0,0 l/m 5,0 km/h (1 Bft) S-SW 194 0 min 0,000 mm 0,0 UV-I 0 W/m 16,9 C 19,7 C 6,4 km/h (2 Bft) 97,44 %
28.07.2016 21:56 19,6 C 86 % 1014,7 hPa 0,0 l/m 5,2 km/h (1 Bft) S 171 0 min 0,000 mm 0,0 UV-I 0 W/m 17,2 C 19,6 C 8,0 km/h (2 Bft) 100,00 %
28.07.2016 21:58 19,6 C 85 % 1014,7 hPa 0,0 l/m 3,1 km/h (1 Bft) S 171 0 min 0,000 mm 0,0 UV-I 0 W/m 17,0 C 19,6 C 6,4 km/h (2 Bft) 100,00 %
28.07.2016 22:00 19,5 C 85 % 1014,7 hPa 0,0 l/m 3,5 km/h (1 Bft) S 169 0 min 0,000 mm 0,0 UV-I 0 W/m 16,9 C 19,5 C 6,4 km/h (2 Bft) 100,00 %
28.07.2016 22:02 19,5 C 85 % 1014,7 hPa 0,0 l/m 3,8 km/h (1 Bft) S-SO 167 0 min 0,000 mm 0,0 UV-I 0 W/m 16,9 C 19,5 C 6,4 km/h (2 Bft) 98,00 %
28.07.2016 22:04 19,6 C 85 % 1014,7 hPa 0,0 l/m 5,7 km/h (1 Bft) S 173 0 min 0,000 mm 0,0 UV-I 0 W/m 17,0 C 19,6 C 8,0 km/h (2 Bft) 100,00 %
28.07.2016 22:06 19,6 C 85 % 1014,7 hPa 0,0 l/m 5,1 km/h (1 Bft) S 183 0 min 0,000 mm 0,0 UV-I 0 W/m 17,0 C 19,6 C 8,0 km/h (2 Bft) 100,00 %
28.07.2016 22:08 19,7 C 86 % 1014,7 hPa 0,0 l/m 4,1 km/h (1 Bft) S 183 0 min 0,000 mm 0,0 UV-I 0 W/m 17,3 C 19,7 C 4,8 km/h (1 Bft) 96,23 %
28.07.2016 22:10 19,7 C 86 % 1014,7 hPa 0,0 l/m 3,9 km/h (1 Bft) S-SW 197 0 min 0,000 mm 0,0 UV-I 0 W/m 17,3 C 19,7 C 6,4 km/h (2 Bft) 97,37 %
28.07.2016 22:12 19,7 C 86 % 1014,7 hPa 0,0 l/m 4,8 km/h (1 Bft) S-SW 196 0 min 0,000 mm 0,0 UV-I 0 W/m 17,3 C 19,7 C 6,4 km/h (2 Bft) 98,00 %
28.07.2016 22:14 19,7 C 86 % 1014,7 hPa 0,0 l/m 4,5 km/h (1 Bft) S-SW 206 0 min 0,000 mm 0,0 UV-I 0 W/m 17,3 C 19,7 C 6,4 km/h (2 Bft) 98,00 %
28.07.2016 22:16 19,7 C 86 % 1014,7 hPa 0,0 l/m 4,5 km/h (1 Bft) SW 234 0 min 0,000 mm 0,0 UV-I 0 W/m 17,3 C 19,7 C 6,4 km/h (2 Bft) 96,00 %
28.07.2016 22:18 19,7 C 86 % 1014,7 hPa 0,0 l/m 3,5 km/h (1 Bft) S-SW 211 0 min 0,000 mm 0,0 UV-I 0 W/m 17,3 C 19,7 C 6,4 km/h (2 Bft) 97,87 %
28.07.2016 22:20 19,7 C 86 % 1014,6 hPa 0,0 l/m 4,6 km/h (1 Bft) SW 218 0 min 0,000 mm 0,0 UV-I 0 W/m 17,3 C 19,7 C 6,4 km/h (2 Bft) 97,56 %
28.07.2016 22:22 19,7 C 87 % 1014,7 hPa 0,0 l/m 4,3 km/h (1 Bft) S-SW 202 0 min 0,000 mm 0,0 UV-I 0 W/m 17,5 C 19,7 C 6,4 km/h (2 Bft) 98,00 %
28.07.2016 22:24 19,6 C 86 % 1014,7 hPa 0,0 l/m 3,8 km/h (1 Bft) S-SW 204 0 min 0,000 mm 0,0 UV-I 0 W/m 17,2 C 19,6 C 6,4 km/h (2 Bft) 95,74 %
28.07.2016 22:26 19,6 C 87 % 1014,7 hPa 0,0 l/m 4,6 km/h (1 Bft) S-SW 201 0 min 0,000 mm 0,0 UV-I 0 W/m 17,4 C 19,6 C 6,4 km/h (2 Bft) 97,22 %
28.07.2016 22:28 19,6 C 87 % 1014,7 hPa 0,0 l/m 4,6 km/h (1 Bft) S-SW 202 0 min 0,000 mm 0,0 UV-I 0 W/m 17,4 C 19,6 C 8,0 km/h (2 Bft) 98,11 %
28.07.2016 22:30 19,6 C 87 % 1014,6 hPa 0,0 l/m 6,2 km/h (2 Bft) S-SW 192 0 min 0,000 mm 0,0 UV-I 0 W/m 17,4 C 19,6 C 8,0 km/h (2 Bft) 97,87 %
28.07.2016 22:32 19,6 C 87 % 1014,6 hPa 0,0 l/m 4,2 km/h (1 Bft) S-SW 193 0 min 0,000 mm 0,0 UV-I 0 W/m 17,4 C 19,6 C 6,4 km/h (2 Bft) 98,11 %
28.07.2016 22:34 19,6 C 87 % 1014,6 hPa 0,0 l/m 4,3 km/h (1 Bft) S-SW 196 0 min 0,000 mm 0,0 UV-I 0 W/m 17,4 C 19,6 C 6,4 km/h (2 Bft) 97,37 %
28.07.2016 22:36 19,6 C 87 % 1014,7 hPa 0,0 l/m 3,5 km/h (1 Bft) S-SW 196 0 min 0,000 mm 0,0 UV-I 0 W/m 17,4 C 19,6 C 4,8 km/h (1 Bft) 95,74 %
28.07.2016 22:38 19,6 C 87 % 1014,6 hPa 0,0 l/m 4,2 km/h (1 Bft) S-SW 196 0 min 0,000 mm 0,0 UV-I 0 W/m 17,4 C 19,6 C 6,4 km/h (2 Bft) 94,00 %
28.07.2016 22:40 19,6 C 87 % 1014,6 hPa 0,0 l/m 5,1 km/h (1 Bft) S-SW 196 0 min 0,000 mm 0,0 UV-I 0 W/m 17,4 C 19,6 C 6,4 km/h (2 Bft) 98,00 %
28.07.2016 22:42 19,5 C 87 % 1014,6 hPa 0,0 l/m 4,7 km/h (1 Bft) S-SW 196 0 min 0,000 mm 0,0 UV-I 0 W/m 17,3 C 19,5 C 6,4 km/h (2 Bft) 97,87 %
28.07.2016 22:44 19,5 C 88 % 1014,6 hPa 0,0 l/m 4,5 km/h (1 Bft) S-SW 195 0 min 0,000 mm 0,0 UV-I 0 W/m 17,5 C 19,5 C 6,4 km/h (2 Bft) 100,00 %
28.07.2016 22:46 19,5 C 88 % 1014,6 hPa 0,0 l/m 4,9 km/h (1 Bft) S-SW 194 0 min 0,000 mm 0,0 UV-I 0 W/m 17,5 C 19,5 C 8,0 km/h (2 Bft) 100,00 %
28.07.2016 22:48 19,4 C 88 % 1014,6 hPa 0,0 l/m 4,9 km/h (1 Bft) S-SW 194 0 min 0,000 mm 0,0 UV-I 0 W/m 17,4 C 19,4 C 8,0 km/h (2 Bft) 97,56 %
28.07.2016 22:50 19,4 C 88 % 1014,6 hPa 0,0 l/m 4,1 km/h (1 Bft) S 191 0 min 0,000 mm 0,0 UV-I 0 W/m 17,4 C 19,4 C 6,4 km/h (2 Bft) 95,74 %
28.07.2016 22:52 19,4 C 88 % 1014,6 hPa 0,0 l/m 4,5 km/h (1 Bft) S-SW 193 0 min 0,000 mm 0,0 UV-I 0 W/m 17,4 C 19,4 C 6,4 km/h (2 Bft) 98,11 %
28.07.2016 22:54 19,4 C 88 % 1014,6 hPa 0,0 l/m 3,4 km/h (1 Bft) S 190 0 min 0,000 mm 0,0 UV-I 0 W/m 17,4 C 19,4 C 4,8 km/h (1 Bft) 100,00 %
28.07.2016 22:56 19,4 C 88 % 1014,6 hPa 0,0 l/m 4,2 km/h (1 Bft) S-SW 192 0 min 0,000 mm 0,0 UV-I 0 W/m 17,4 C 19,4 C 8,0 km/h (2 Bft) 100,00 %
28.07.2016 22:58 19,3 C 88 % 1014,6 hPa 0,0 l/m 4,6 km/h (1 Bft) S-SW 197 0 min 0,000 mm 0,0 UV-I 0 W/m 17,3 C 19,3 C 8,0 km/h (2 Bft) 98,00 %
28.07.2016 23:00 19,3 C 88 % 1014,6 hPa 0,0 l/m 5,1 km/h (1 Bft) S 190 0 min 0,000 mm 0,0 UV-I 0 W/m 17,3 C 19,3 C 8,0 km/h (2 Bft) 100,00 %
28.07.2016 23:02 19,3 C 88 % 1014,6 hPa 0,0 l/m 6,0 km/h (2 Bft) S-SW 199 0 min 0,000 mm 0,0 UV-I 0 W/m 17,3 C 19,3 C 8,0 km/h (2 Bft) 98,00 %
28.07.2016 23:04 19,3 C 88 % 1014,5 hPa 0,0 l/m 4,7 km/h (1 Bft) S-SW 206 0 min 0,000 mm 0,0 UV-I 0 W/m 17,3 C 19,3 C 8,0 km/h (2 Bft) 100,00 %
28.07.2016 23:06 19,2 C 88 % 1014,6 hPa 0,0 l/m 2,9 km/h (1 Bft) S-SW 207 0 min 0,000 mm 0,0 UV-I 0 W/m 17,2 C 19,2 C 4,8 km/h (1 Bft) 100,00 %
28.07.2016 23:08 19,2 C 88 % 1014,5 hPa 0,0 l/m 3,4 km/h (1 Bft) SW 216 0 min 0,000 mm 0,0 UV-I 0 W/m 17,2 C 19,2 C 4,8 km/h (1 Bft) 100,00 %
28.07.2016 23:10 19,2 C 88 % 1014,6 hPa 0,0 l/m 3,8 km/h (1 Bft) SW 217 0 min 0,000 mm 0,0 UV-I 0 W/m 17,2 C 19,2 C 6,4 km/h (2 Bft) 100,00 %
28.07.2016 23:12 19,1 C 88 % 1014,5 hPa 0,0 l/m 3,5 km/h (1 Bft) SW 217 0 min 0,000 mm 0,0 UV-I 0 W/m 17,1 C 19,1 C 6,4 km/h (2 Bft) 100,00 %
28.07.2016 23:14 19,1 C 89 % 1014,5 hPa 0,0 l/m 3,7 km/h (1 Bft) SW 217 0 min 0,000 mm 0,0 UV-I 0 W/m 17,2 C 19,1 C 6,4 km/h (2 Bft) 100,00 %
28.07.2016 23:16 19,0 C 89 % 1014,5 hPa 0,0 l/m 3,1 km/h (1 Bft) SW 217 0 min 0,000 mm 0,0 UV-I 0 W/m 17,1 C 19,0 C 4,8 km/h (1 Bft) 98,11 %
28.07.2016 23:18 19,0 C 89 % 1014,5 hPa 0,0 l/m 3,4 km/h (1 Bft) SW 217 0 min 0,000 mm 0,0 UV-I 0 W/m 17,1 C 19,0 C 4,8 km/h (1 Bft) 100,00 %
28.07.2016 23:20 18,9 C 89 % 1014,4 hPa 0,0 l/m 3,6 km/h (1 Bft) SW 217 0 min 0,000 mm 0,0 UV-I 0 W/m 17,0 C 18,9 C 4,8 km/h (1 Bft) 100,00 %
28.07.2016 23:22 18,9 C 89 % 1014,5 hPa 0,0 l/m 3,5 km/h (1 Bft) SW 217 0 min 0,000 mm 0,0 UV-I 0 W/m 17,0 C 18,9 C 4,8 km/h (1 Bft) 100,00 %
28.07.2016 23:24 18,8 C 90 % 1014,5 hPa 0,0 l/m 3,7 km/h (1 Bft) SW 217 0 min 0,000 mm 0,0 UV-I 0 W/m 17,1 C 18,8 C 4,8 km/h (1 Bft) 96,00 %
28.07.2016 23:26 18,8 C 90 % 1014,5 hPa 0,0 l/m 3,7 km/h (1 Bft) SW 219 0 min 0,000 mm 0,0 UV-I 0 W/m 17,1 C 18,8 C 6,4 km/h (2 Bft) 100,00 %
28.07.2016 23:28 18,8 C 90 % 1014,5 hPa 0,0 l/m 3,2 km/h (1 Bft) SW 219 0 min 0,000 mm 0,0 UV-I 0 W/m 17,1 C 18,8 C 4,8 km/h (1 Bft) 100,00 %
28.07.2016 23:30 18,7 C 90 % 1014,3 hPa 0,0 l/m 3,0 km/h (1 Bft) SW 219 0 min 0,000 mm 0,0 UV-I 0 W/m 17,0 C 18,7 C 4,8 km/h (1 Bft) 96,00 %
28.07.2016 23:32 18,7 C 90 % 1014,3 hPa 0,0 l/m 3,9 km/h (1 Bft) SW 219 0 min 0,000 mm 0,0 UV-I 0 W/m 17,0 C 18,7 C 4,8 km/h (1 Bft) 100,00 %
28.07.2016 23:34 18,7 C 90 % 1014,3 hPa 0,0 l/m 4,2 km/h (1 Bft) SW 219 0 min 0,000 mm 0,0 UV-I 0 W/m 17,0 C 18,7 C 4,8 km/h (1 Bft) 100,00 %
28.07.2016 23:36 18,7 C 90 % 1014,4 hPa 0,0 l/m 5,5 km/h (1 Bft) S-SW 196 0 min 0,000 mm 0,0 UV-I 0 W/m 17,0 C 18,7 C 8,0 km/h (2 Bft) 97,87 %
28.07.2016 23:38 18,7 C 90 % 1014,4 hPa 0,0 l/m 5,9 km/h (2 Bft) S 191 0 min 0,000 mm 0,0 UV-I 0 W/m 17,0 C 18,7 C 8,0 km/h (2 Bft) 100,00 %
28.07.2016 23:40 18,6 C 91 % 1014,3 hPa 0,0 l/m 4,8 km/h (1 Bft) S 190 0 min 0,000 mm 0,0 UV-I 0 W/m 17,1 C 18,6 C 6,4 km/h (2 Bft) 98,00 %
28.07.2016 23:42 18,5 C 91 % 1014,3 hPa 0,0 l/m 5,1 km/h (1 Bft) S-SW 197 0 min 0,000 mm 0,0 UV-I 0 W/m 17,0 C 18,5 C 8,0 km/h (2 Bft) 100,00 %
28.07.2016 23:44 18,4 C 91 % 1014,3 hPa 0,0 l/m 4,0 km/h (1 Bft) S-SW 197 0 min 0,000 mm 0,0 UV-I 0 W/m 16,9 C 18,4 C 4,8 km/h (1 Bft) 100,00 %
28.07.2016 23:46 18,4 C 91 % 1014,3 hPa 0,0 l/m 4,6 km/h (1 Bft) S 179 0 min 0,000 mm 0,0 UV-I 0 W/m 16,9 C 18,4 C 6,4 km/h (2 Bft) 100,00 %
28.07.2016 23:48 18,3 C 91 % 1014,3 hPa 0,0 l/m 3,6 km/h (1 Bft) S 179 0 min 0,000 mm 0,0 UV-I 0 W/m 16,8 C 18,3 C 4,8 km/h (1 Bft) 98,00 %
28.07.2016 23:50 18,3 C 91 % 1014,3 hPa 0,0 l/m 3,7 km/h (1 Bft) S 179 0 min 0,000 mm 0,0 UV-I 0 W/m 16,8 C 18,3 C 4,8 km/h (1 Bft) 100,00 %
28.07.2016 23:52 18,3 C 91 % 1014,3 hPa 0,0 l/m 3,5 km/h (1 Bft) S 179 0 min 0,000 mm 0,0 UV-I 0 W/m 16,8 C 18,3 C 4,8 km/h (1 Bft) 100,00 %
28.07.2016 23:54 18,3 C 91 % 1014,2 hPa 0,0 l/m 2,2 km/h (1 Bft) S 179 0 min 0,000 mm 0,0 UV-I 0 W/m 16,8 C 18,3 C 3,2 km/h (1 Bft) 100,00 %
28.07.2016 23:56 18,3 C 91 % 1014,3 hPa 0,0 l/m 2,0 km/h (1 Bft) S 179 0 min 0,000 mm 0,0 UV-I 0 W/m 16,8 C 18,3 C 3,2 km/h (1 Bft) 100,00 %
28.07.2016 23:58 18,3 C 91 % 1014,3 hPa 0,0 l/m 1,8 km/h (1 Bft) S 179 0 min 0,000 mm 0,0 UV-I 0 W/m 16,8 C 18,3 C 3,2 km/h (1 Bft) 100,00 %
_ Min-Zeit 04:02 16:30 17:44 - 03:38 - - - - - - 17:38 02:54 03:38 12:25
Minimum _ 17,2 C 50 % 1013,9 hPa - 0,0 km/h (0 Bft) - - - - - - 13,6 C 16,2 C 0,0 km/h (0 Bft) 75,44 %
_ Max-Zeit 17:18 00:56 09:14 00:00 16:16 - - 12:05 16:02 14:28 14:32 14:28 17:18 02:54 00:00
Maximum _ 25,3 C 96 % 1016,7 hPa 0,0 l/m 9,7 km/h
W (2 Bft)
- - 5 min 0,457 mm 6,2 UV-I 1051 W/m 19,2 C 25,3 C 16,1 km/h
W-SW (3 Bft)
100,00 %
Durchschnitt _ 20,1 C 83 % 1015,5 hPa #0,0 l/m 3,5 km/h (1 Bft) W-SW - #5:00 h #2,819 mm 2,5 UV-I 295 W/m 16,8 C 20,1 C 6,2 km/h (2 Bft) 98,42 %